Time,TemperatureF,DewpointF,PressureIn,WindDirection,WindDirectionDegrees,WindSpeedMPH,WindSpeedGustMPH,Humidity,HourlyPrecipIn,Conditions,Clouds,dailyrainin,SoftwareType,DateUTC
2014-01-30 06:20:00,37.9,26.5,29.51,SSE,158,2.0,13.0,63,0.00,,---,0.00,VWS V14.01,2014-01-30 13:20:00,
2014-01-30 06:27:00,38.6,26.7,29.50,South,171,0.0,2.0,62,0.00,,---,0.00,VWS V14.01,2014-01-30 13:27:00,
2014-01-30 06:28:00,38.6,26.7,29.50,South,172,4.0,4.0,62,0.00,,---,0.00,VWS V14.01,2014-01-30 13:28:00,
2014-01-30 06:29:00,38.6,26.7,29.50,South,177,4.0,7.0,62,0.00,,---,0.00,VWS V14.01,2014-01-30 13:29:00,
2014-01-30 06:30:00,38.6,26.7,29.50,South,177,0.0,7.0,62,0.00,,---,0.00,VWS V14.01,2014-01-30 13:30:00,
2014-01-30 06:31:00,38.6,26.7,29.50,South,177,4.0,4.0,62,0.00,,---,0.00,VWS V14.01,2014-01-30 13:31:00,
2014-01-30 06:32:00,38.6,26.7,29.50,South,178,6.0,6.0,62,0.00,,---,0.00,VWS V14.01,2014-01-30 13:32:00,
2014-01-30 06:33:00,38.6,26.7,29.50,South,176,6.0,7.0,62,0.00,,---,0.00,VWS V14.01,2014-01-30 13:33:00,
2014-01-30 06:34:00,38.7,26.4,29.49,South,170,0.0,7.0,61,0.00,,---,0.00,VWS V14.01,2014-01-30 13:34:00,
2014-01-30 06:35:00,38.7,26.4,29.50,South,169,0.0,7.0,61,0.00,,---,0.00,VWS V14.01,2014-01-30 13:35:00,
2014-01-30 06:36:00,38.7,26.8,29.50,South,169,10.0,10.0,62,0.00,,---,0.00,VWS V14.01,2014-01-30 13:36:00,
2014-01-30 06:37:00,38.7,26.8,29.50,SSE,165,4.0,10.0,62,0.00,,---,0.00,VWS V14.01,2014-01-30 13:37:00,
2014-01-30 06:38:00,38.7,26.8,29.51,SSE,163,0.0,10.0,62,0.00,,---,0.00,VWS V14.01,2014-01-30 13:38:00,
2014-01-30 06:39:00,38.7,26.8,29.51,SSE,155,0.0,10.0,62,0.00,,---,0.00,VWS V14.01,2014-01-30 13:39:00,
2014-01-30 06:40:00,38.7,26.8,29.51,SSE,155,0.0,10.0,62,0.00,,---,0.00,VWS V14.01,2014-01-30 13:40:00,
2014-01-30 06:41:00,38.7,26.8,29.51,SE,131,0.0,1.0,62,0.00,,---,0.00,VWS V14.01,2014-01-30 13:41:00,
2014-01-30 06:42:00,38.7,26.8,29.50,SE,134,0.0,3.0,62,0.00,,---,0.00,VWS V14.01,2014-01-30 13:42:00,
2014-01-30 06:43:00,38.8,26.9,29.50,SSE,153,0.0,3.0,62,0.00,,---,0.00,VWS V14.01,2014-01-30 13:43:00,
2014-01-30 06:44:00,38.7,27.2,29.50,SSE,166,4.0,9.0,63,0.00,,---,0.00,VWS V14.01,2014-01-30 13:44:00,
2014-01-30 06:45:00,38.7,27.2,29.50,South,172,4.0,13.0,63,0.00,,---,0.00,VWS V14.01,2014-01-30 13:45:00,
2014-01-30 06:46:00,38.7,27.2,29.50,South,169,4.0,14.0,63,0.00,,---,0.00,VWS V14.01,2014-01-30 13:46:00,
2014-01-30 06:47:00,38.7,27.2,29.51,South,169,0.0,14.0,63,0.00,,---,0.00,VWS V14.01,2014-01-30 13:47:00,
2014-01-30 06:48:00,38.7,27.2,29.51,ESE,112,1.0,14.0,63,0.00,,---,0.00,VWS V14.01,2014-01-30 13:48:00,
2014-01-30 06:49:00,38.7,27.2,29.51,ESE,113,1.0,14.0,63,0.00,,---,0.00,VWS V14.01,2014-01-30 13:49:00,
2014-01-30 06:50:00,38.7,27.2,29.50,East,96,4.0,14.0,63,0.00,,---,0.00,VWS V14.01,2014-01-30 13:50:00,
2014-01-30 06:51:00,38.7,27.2,29.50,SE,133,1.0,4.0,63,0.00,,---,0.00,VWS V14.01,2014-01-30 13:51:00,
2014-01-30 06:52:00,38.7,27.2,29.50,SSE,150,1.0,4.0,63,0.00,,---,0.00,VWS V14.01,2014-01-30 13:52:00,
2014-01-30 06:53:00,38.7,27.2,29.50,SSE,168,6.0,6.0,63,0.00,,---,0.00,VWS V14.01,2014-01-30 13:53:00,
2014-01-30 06:54:00,38.7,27.6,29.50,SSE,164,4.0,8.0,64,0.00,,---,0.00,VWS V14.01,2014-01-30 13:54:00,
2014-01-30 06:55:00,38.7,27.2,29.50,South,172,5.0,11.0,63,0.00,,---,0.00,VWS V14.01,2014-01-30 13:55:00,
2014-01-30 06:56:00,38.6,27.1,29.51,SSE,161,0.0,7.0,63,0.00,,---,0.00,VWS V14.01,2014-01-30 13:56:00,
2014-01-30 06:57:00,38.6,27.1,29.51,SSE,154,2.0,7.0,63,0.00,,---,0.00,VWS V14.01,2014-01-30 13:57:00,
2014-01-30 06:58:00,38.6,27.5,29.50,ESE,123,1.0,7.0,64,0.00,,---,0.00,VWS V14.01,2014-01-30 13:58:00,
2014-01-30 06:59:00,38.5,27.4,29.50,SE,126,0.0,7.0,64,0.00,,---,0.00,VWS V14.01,2014-01-30 13:59:00,
2014-01-30 07:00:00,38.5,27.4,29.51,SE,126,0.0,7.0,64,0.00,,---,0.00,VWS V14.01,2014-01-30 14:00:00,
2014-01-30 07:01:00,38.4,27.3,29.51,ESE,121,0.0,1.0,64,0.00,,---,0.00,VWS V14.01,2014-01-30 14:01:00,
2014-01-30 07:02:00,38.4,27.3,29.54,ESE,121,1.0,1.0,64,0.00,,---,0.00,VWS V14.01,2014-01-30 14:02:00,
2014-01-30 07:03:00,38.4,27.3,29.54,ESE,103,2.0,2.0,64,0.00,,---,0.00,VWS V14.01,2014-01-30 14:03:00,
2014-01-30 07:04:00,38.3,27.2,29.53,ESE,107,0.0,2.0,64,0.00,,---,0.00,VWS V14.01,2014-01-30 14:04:00,
2014-01-30 07:05:00,38.3,27.6,29.53,ESE,106,0.0,2.0,65,0.00,,---,0.00,VWS V14.01,2014-01-30 14:05:00,
2014-01-30 07:06:00,38.2,27.5,29.53,ESE,106,1.0,1.0,65,0.00,,---,0.00,VWS V14.01,2014-01-30 14:06:00,
2014-01-30 07:07:00,38.2,27.5,29.54,SE,143,5.0,6.0,65,0.00,,---,0.00,VWS V14.01,2014-01-30 14:07:00,
2014-01-30 07:08:00,38.3,27.6,29.54,SE,140,0.0,6.0,65,0.00,,---,0.00,VWS V14.01,2014-01-30 14:08:00,
2014-01-30 07:09:00,38.3,27.6,29.54,SSE,166,0.0,9.0,65,0.00,,---,0.00,VWS V14.01,2014-01-30 14:09:00,
2014-01-30 07:10:00,38.4,27.7,29.53,SSE,153,0.0,9.0,65,0.00,,---,0.00,VWS V14.01,2014-01-30 14:10:00,
2014-01-30 07:11:00,38.4,27.7,29.53,SSE,152,0.0,0.0,65,0.00,,---,0.00,VWS V14.01,2014-01-30 14:11:00,
2014-01-30 07:12:00,38.5,27.8,29.53,SSE,164,9.0,9.0,65,0.00,,---,0.00,VWS V14.01,2014-01-30 14:12:00,
2014-01-30 07:13:00,38.5,27.8,29.52,SSE,164,5.0,12.0,65,0.00,,---,0.00,VWS V14.01,2014-01-30 14:13:00,
2014-01-30 07:14:00,38.5,27.8,29.52,SSE,164,0.0,12.0,65,0.00,,---,0.00,VWS V14.01,2014-01-30 14:14:00,
2014-01-30 07:15:00,38.5,27.8,29.52,SSE,157,0.0,12.0,65,0.00,,---,0.00,VWS V14.01,2014-01-30 14:15:00,
2014-01-30 07:16:00,38.4,27.7,29.51,SE,126,0.0,2.0,65,0.00,,---,0.00,VWS V14.01,2014-01-30 14:16:00,
2014-01-30 07:17:00,38.4,27.7,29.53,ESE,114,0.0,2.0,65,0.00,,---,0.00,VWS V14.01,2014-01-30 14:17:00,
2014-01-30 07:18:00,38.4,27.7,29.53,ESE,117,0.0,2.0,65,0.00,,---,0.00,VWS V14.01,2014-01-30 14:18:00,
2014-01-30 07:19:00,38.4,27.7,29.53,SE,134,4.0,5.0,65,0.00,,---,0.00,VWS V14.01,2014-01-30 14:19:00,
2014-01-30 07:20:00,38.4,27.7,29.53,South,180,10.0,11.0,65,0.00,,---,0.00,VWS V14.01,2014-01-30 14:20:00,
2014-01-30 07:21:00,38.5,27.8,29.54,South,169,7.0,11.0,65,0.00,,---,0.00,VWS V14.01,2014-01-30 14:21:00,
2014-01-30 07:22:00,38.6,27.9,29.52,South,170,6.0,11.0,65,0.00,,---,0.00,VWS V14.01,2014-01-30 14:22:00,
2014-01-30 07:23:00,38.6,27.9,29.52,South,170,5.0,11.0,65,0.00,,---,0.00,VWS V14.01,2014-01-30 14:23:00,
2014-01-30 07:24:00,38.7,28.0,29.52,South,169,0.0,11.0,65,0.00,,---,0.00,VWS V14.01,2014-01-30 14:24:00,
2014-01-30 07:25:00,38.7,28.0,29.52,SSE,165,5.0,11.0,65,0.00,,---,0.00,VWS V14.01,2014-01-30 14:25:00,
2014-01-30 07:26:00,38.8,28.1,29.52,SSE,163,0.0,2.0,65,0.00,,---,0.00,VWS V14.01,2014-01-30 14:26:00,
2014-01-30 07:27:00,38.8,27.7,29.52,SSE,162,0.0,4.0,64,0.00,,---,0.00,VWS V14.01,2014-01-30 14:27:00,
2014-01-30 07:28:00,38.9,27.8,29.52,SSE,165,0.0,4.0,64,0.00,,---,0.00,VWS V14.01,2014-01-30 14:28:00,
2014-01-30 07:29:00,38.9,27.8,29.52,SSE,164,0.0,4.0,64,0.00,,---,0.00,VWS V14.01,2014-01-30 14:29:00,
2014-01-30 07:30:00,38.9,27.8,29.52,SSE,166,6.0,6.0,64,0.00,,---,0.00,VWS V14.01,2014-01-30 14:30:00,
2014-01-30 07:31:00,39.0,27.9,29.52,SSE,165,5.0,7.0,64,0.00,,---,0.00,VWS V14.01,2014-01-30 14:31:00,
2014-01-30 07:32:00,39.1,28.0,29.52,South,178,0.0,8.0,64,0.00,,---,0.00,VWS V14.01,2014-01-30 14:32:00,
2014-01-30 07:33:00,39.1,28.0,29.52,South,178,0.0,8.0,64,0.00,,---,0.00,VWS V14.01,2014-01-30 14:33:00,
2014-01-30 07:34:00,39.2,28.1,29.52,South,178,0.0,8.0,64,0.00,,---,0.00,VWS V14.01,2014-01-30 14:34:00,
2014-01-30 07:35:00,39.2,27.7,29.52,South,178,0.0,8.0,63,0.00,,---,0.00,VWS V14.01,2014-01-30 14:35:00,
2014-01-30 07:36:00,39.3,27.8,29.53,South,179,2.0,2.0,63,0.00,,---,0.00,VWS V14.01,2014-01-30 14:36:00,
2014-01-30 07:37:00,39.3,27.8,29.53,South,179,0.0,4.0,63,0.00,,---,0.00,VWS V14.01,2014-01-30 14:37:00,
2014-01-30 07:38:00,39.4,27.9,29.53,South,182,0.0,4.0,63,0.00,,---,0.00,VWS V14.01,2014-01-30 14:38:00,
2014-01-30 07:39:00,39.4,27.9,29.52,South,183,1.0,4.0,63,0.00,,---,0.00,VWS V14.01,2014-01-30 14:39:00,
2014-01-30 07:40:00,39.3,27.8,29.52,South,182,6.0,6.0,63,0.00,,---,0.00,VWS V14.01,2014-01-30 14:40:00,
2014-01-30 07:41:00,39.3,28.2,29.52,South,176,7.0,7.0,64,0.00,,---,0.00,VWS V14.01,2014-01-30 14:41:00,
2014-01-30 07:42:00,39.3,28.2,29.53,South,175,4.0,12.0,64,0.00,,---,0.00,VWS V14.01,2014-01-30 14:42:00,
2014-01-30 07:43:00,39.2,28.1,29.53,South,175,0.0,12.0,64,0.00,,---,0.00,VWS V14.01,2014-01-30 14:43:00,
2014-01-30 07:44:00,39.2,28.1,29.53,South,175,0.0,12.0,64,0.00,,---,0.00,VWS V14.01,2014-01-30 14:44:00,
2014-01-30 07:45:00,39.2,28.1,29.53,South,175,4.0,12.0,64,0.00,,---,0.00,VWS V14.01,2014-01-30 14:45:00,
2014-01-30 07:46:00,39.2,28.1,29.52,South,175,2.0,5.0,64,0.00,,---,0.00,VWS V14.01,2014-01-30 14:46:00,
2014-01-30 07:47:00,39.2,28.1,29.53,South,169,6.0,9.0,64,0.00,,---,0.00,VWS V14.01,2014-01-30 14:47:00,
2014-01-30 07:48:00,39.1,28.0,29.53,South,171,0.0,9.0,64,0.00,,---,0.00,VWS V14.01,2014-01-30 14:48:00,
2014-01-30 07:49:00,39.1,28.0,29.53,South,172,0.0,9.0,64,0.00,,---,0.00,VWS V14.01,2014-01-30 14:49:00,
2014-01-30 07:50:00,39.1,28.0,29.53,South,173,0.0,9.0,64,0.00,,---,0.00,VWS V14.01,2014-01-30 14:50:00,
2014-01-30 07:51:00,39.1,28.0,29.53,South,173,0.0,0.0,64,0.00,,---,0.00,VWS V14.01,2014-01-30 14:51:00,
2014-01-30 07:52:00,39.1,28.3,29.53,South,172,0.0,0.0,65,0.00,,---,0.00,VWS V14.01,2014-01-30 14:52:00,
2014-01-30 07:53:00,39.1,28.3,29.53,South,172,0.0,0.0,65,0.00,,---,0.00,VWS V14.01,2014-01-30 14:53:00,
2014-01-30 07:54:00,39.2,28.4,29.53,South,173,0.0,0.0,65,0.00,,---,0.00,VWS V14.01,2014-01-30 14:54:00,
2014-01-30 07:55:00,39.2,28.4,29.53,South,173,0.0,0.0,65,0.00,,---,0.00,VWS V14.01,2014-01-30 14:55:00,
2014-01-30 07:56:00,39.2,28.4,29.54,South,173,0.0,0.0,65,0.00,,---,0.00,VWS V14.01,2014-01-30 14:56:00,
2014-01-30 07:57:00,39.2,28.4,29.54,South,172,1.0,1.0,65,0.00,,---,0.00,VWS V14.01,2014-01-30 14:57:00,
2014-01-30 07:58:00,39.2,28.4,29.54,South,172,0.0,1.0,65,0.00,,---,0.00,VWS V14.01,2014-01-30 14:58:00,
2014-01-30 07:59:00,39.2,28.4,29.53,South,173,0.0,1.0,65,0.00,,---,0.00,VWS V14.01,2014-01-30 14:59:00,
2014-01-30 08:00:00,39.3,28.5,29.54,South,172,0.0,1.0,65,0.00,,---,0.00,VWS V14.01,2014-01-30 15:00:00,
2014-01-30 08:01:00,39.3,28.5,29.52,South,172,0.0,0.0,65,0.00,,---,0.00,VWS V14.01,2014-01-30 15:01:00,
2014-01-30 08:02:00,39.3,28.5,29.52,South,172,0.0,0.0,65,0.00,,---,0.00,VWS V14.01,2014-01-30 15:02:00,
2014-01-30 08:03:00,39.3,28.5,29.52,South,173,0.0,0.0,65,0.00,,---,0.00,VWS V14.01,2014-01-30 15:03:00,
2014-01-30 08:04:00,39.3,28.5,29.52,South,173,0.0,0.0,65,0.00,,---,0.00,VWS V14.01,2014-01-30 15:04:00,
2014-01-30 08:05:00,39.4,28.6,29.52,South,173,0.0,0.0,65,0.00,,---,0.00,VWS V14.01,2014-01-30 15:05:00,
2014-01-30 08:06:00,39.4,28.6,29.52,South,173,0.0,0.0,65,0.00,,---,0.00,VWS V14.01,2014-01-30 15:06:00,
2014-01-30 08:07:00,39.5,28.4,29.53,South,173,0.0,0.0,64,0.00,,---,0.00,VWS V14.01,2014-01-30 15:07:00,
2014-01-30 08:08:00,39.5,28.4,29.52,South,173,0.0,0.0,64,0.00,,---,0.00,VWS V14.01,2014-01-30 15:08:00,
2014-01-30 08:09:00,39.6,28.4,29.53,South,172,0.0,1.0,64,0.00,,---,0.00,VWS V14.01,2014-01-30 15:09:00,
2014-01-30 08:10:00,39.6,28.4,29.52,South,173,0.0,1.0,64,0.00,,---,0.00,VWS V14.01,2014-01-30 15:10:00,
2014-01-30 08:11:00,39.7,28.5,29.52,South,172,0.0,0.0,64,0.00,,---,0.00,VWS V14.01,2014-01-30 15:11:00,
2014-01-30 08:12:00,39.7,28.5,29.52,South,172,0.0,0.0,64,0.00,,---,0.00,VWS V14.01,2014-01-30 15:12:00,
2014-01-30 08:13:00,39.7,28.5,29.52,South,173,0.0,0.0,64,0.00,,---,0.00,VWS V14.01,2014-01-30 15:13:00,
2014-01-30 08:14:00,39.7,28.5,29.52,South,173,0.0,0.0,64,0.00,,---,0.00,VWS V14.01,2014-01-30 15:14:00,
2014-01-30 08:15:00,39.7,28.5,29.52,South,172,0.0,2.0,64,0.00,,---,0.00,VWS V14.01,2014-01-30 15:15:00,
2014-01-30 08:16:00,39.8,28.6,29.52,South,173,0.0,1.0,64,0.00,,---,0.00,VWS V14.01,2014-01-30 15:16:00,
2014-01-30 08:17:00,39.8,28.6,29.53,South,172,3.0,3.0,64,0.00,,---,0.00,VWS V14.01,2014-01-30 15:17:00,
2014-01-30 08:18:00,39.9,28.7,29.53,South,171,0.0,3.0,64,0.00,,---,0.00,VWS V14.01,2014-01-30 15:18:00,
2014-01-30 08:19:00,39.9,28.7,29.52,South,171,0.0,3.0,64,0.00,,---,0.00,VWS V14.01,2014-01-30 15:19:00,
2014-01-30 08:20:00,40.0,28.8,29.52,South,171,0.0,3.0,64,0.00,,---,0.00,VWS V14.01,2014-01-30 15:20:00,
2014-01-30 08:21:00,40.0,28.8,29.52,South,171,0.0,0.0,64,0.00,,---,0.00,VWS V14.01,2014-01-30 15:21:00,
2014-01-30 08:22:00,40.1,28.9,29.52,South,171,0.0,0.0,64,0.00,,---,0.00,VWS V14.01,2014-01-30 15:22:00,
2014-01-30 08:23:00,40.1,28.9,29.52,South,171,0.0,0.0,64,0.00,,---,0.00,VWS V14.01,2014-01-30 15:23:00,
2014-01-30 08:24:00,40.2,28.6,29.52,South,171,0.0,0.0,63,0.00,,---,0.00,VWS V14.01,2014-01-30 15:24:00,
2014-01-30 08:25:00,40.2,28.6,29.52,South,171,0.0,0.0,63,0.00,,---,0.00,VWS V14.01,2014-01-30 15:25:00,
2014-01-30 08:26:00,40.2,28.6,29.53,South,171,0.0,0.0,63,0.00,,---,0.00,VWS V14.01,2014-01-30 15:26:00,
2014-01-30 08:27:00,40.2,28.6,29.53,South,171,0.0,0.0,63,0.00,,---,0.00,VWS V14.01,2014-01-30 15:27:00,
2014-01-30 08:28:00,40.2,28.6,29.53,South,171,0.0,4.0,63,0.00,,---,0.00,VWS V14.01,2014-01-30 15:28:00,
2014-01-30 08:29:00,40.2,29.0,29.53,South,171,0.0,4.0,64,0.00,,---,0.00,VWS V14.01,2014-01-30 15:29:00,
2014-01-30 08:30:00,40.2,29.0,29.52,South,171,0.0,4.0,64,0.00,,---,0.00,VWS V14.01,2014-01-30 15:30:00,
2014-01-30 08:31:00,40.2,29.0,29.52,South,171,0.0,0.0,64,0.00,,---,0.00,VWS V14.01,2014-01-30 15:31:00,
2014-01-30 08:32:00,40.2,29.0,29.52,South,169,1.0,2.0,64,0.00,,---,0.00,VWS V14.01,2014-01-30 15:32:00,
2014-01-30 08:33:00,40.2,29.0,29.52,South,169,0.0,3.0,64,0.00,,---,0.00,VWS V14.01,2014-01-30 15:33:00,
2014-01-30 08:34:00,40.3,29.1,29.52,SSW,194,0.0,4.0,64,0.00,,---,0.00,VWS V14.01,2014-01-30 15:34:00,
2014-01-30 08:35:00,40.3,29.1,29.52,SSW,194,0.0,4.0,64,0.00,,---,0.00,VWS V14.01,2014-01-30 15:35:00,
2014-01-30 08:36:00,40.3,29.1,29.52,SSW,195,1.0,2.0,64,0.00,,---,0.00,VWS V14.01,2014-01-30 15:36:00,
2014-01-30 08:37:00,40.3,29.1,29.53,SSW,195,1.0,2.0,64,0.00,,---,0.00,VWS V14.01,2014-01-30 15:37:00,
2014-01-30 08:38:00,40.3,29.1,29.52,SSW,194,0.0,2.0,64,0.00,,---,0.00,VWS V14.01,2014-01-30 15:38:00,
2014-01-30 08:39:00,40.4,29.2,29.53,SSW,195,1.0,2.0,64,0.00,,---,0.00,VWS V14.01,2014-01-30 15:39:00,
2014-01-30 08:40:00,40.4,29.2,29.53,SSW,195,0.0,2.0,64,0.00,,---,0.00,VWS V14.01,2014-01-30 15:40:00,
2014-01-30 08:41:00,40.4,29.2,29.53,SSW,195,0.0,0.0,64,0.00,,---,0.00,VWS V14.01,2014-01-30 15:41:00,
2014-01-30 08:42:00,40.5,28.9,29.51,SSW,194,0.0,1.0,63,0.00,,---,0.00,VWS V14.01,2014-01-30 15:42:00,
2014-01-30 08:43:00,40.5,29.3,29.51,SSW,195,0.0,1.0,64,0.00,,---,0.00,VWS V14.01,2014-01-30 15:43:00,
2014-01-30 08:44:00,40.6,29.4,29.51,SSW,195,0.0,1.0,64,0.00,,---,0.00,VWS V14.01,2014-01-30 15:44:00,
2014-01-30 08:45:00,40.6,29.4,29.51,SSW,195,0.0,1.0,64,0.00,,---,0.00,VWS V14.01,2014-01-30 15:45:00,
2014-01-30 08:46:00,40.6,29.4,29.51,SSW,195,1.0,2.0,64,0.00,,---,0.00,VWS V14.01,2014-01-30 15:46:00,
2014-01-30 08:47:00,40.6,29.4,29.51,SSW,195,0.0,2.0,64,0.00,,---,0.00,VWS V14.01,2014-01-30 15:47:00,
2014-01-30 08:48:00,40.6,29.4,29.51,South,190,2.0,7.0,64,0.00,,---,0.00,VWS V14.01,2014-01-30 15:48:00,
2014-01-30 08:49:00,40.5,29.3,29.51,South,190,0.0,7.0,64,0.00,,---,0.00,VWS V14.01,2014-01-30 15:49:00,
2014-01-30 08:50:00,40.5,29.7,29.51,South,190,0.0,7.0,65,0.00,,---,0.00,VWS V14.01,2014-01-30 15:50:00,
2014-01-30 08:51:00,40.5,29.7,29.51,South,190,0.0,0.0,65,0.00,,---,0.00,VWS V14.01,2014-01-30 15:51:00,
2014-01-30 08:52:00,40.5,29.7,29.51,South,190,2.0,5.0,65,0.00,,---,0.00,VWS V14.01,2014-01-30 15:52:00,
2014-01-30 08:53:00,40.5,29.3,29.51,South,190,0.0,5.0,64,0.00,,---,0.00,VWS V14.01,2014-01-30 15:53:00,
2014-01-30 08:54:00,40.5,29.7,29.51,South,190,0.0,5.0,65,0.00,,---,0.00,VWS V14.01,2014-01-30 15:54:00,
2014-01-30 08:55:00,40.5,29.7,29.50,South,190,0.0,5.0,65,0.00,,---,0.00,VWS V14.01,2014-01-30 15:55:00,
2014-01-30 08:56:00,40.5,29.7,29.51,South,190,0.0,0.0,65,0.00,,---,0.00,VWS V14.01,2014-01-30 15:56:00,
2014-01-30 08:57:00,40.5,29.7,29.51,South,190,0.0,0.0,65,0.00,,---,0.00,VWS V14.01,2014-01-30 15:57:00,
2014-01-30 08:58:00,40.6,29.8,29.51,South,189,0.0,0.0,65,0.00,,---,0.00,VWS V14.01,2014-01-30 15:58:00,
2014-01-30 08:59:00,40.6,29.8,29.50,South,188,0.0,0.0,65,0.00,,---,0.00,VWS V14.01,2014-01-30 15:59:00,
2014-01-30 09:00:00,40.7,29.9,29.51,South,189,0.0,0.0,65,0.00,,---,0.00,VWS V14.01,2014-01-30 16:00:00,
2014-01-30 09:01:00,40.7,29.9,29.51,South,188,0.0,0.0,65,0.00,,---,0.00,VWS V14.01,2014-01-30 16:01:00,
2014-01-30 09:02:00,40.8,30.0,29.53,South,188,0.0,6.0,65,0.00,,---,0.00,VWS V14.01,2014-01-30 16:02:00,
2014-01-30 09:03:00,40.8,29.6,29.53,South,187,2.0,6.0,64,0.00,,---,0.00,VWS V14.01,2014-01-30 16:03:00,
2014-01-30 09:04:00,40.8,29.6,29.53,South,188,0.0,6.0,64,0.00,,---,0.00,VWS V14.01,2014-01-30 16:04:00,
2014-01-30 09:05:00,40.8,29.6,29.53,South,188,0.0,6.0,64,0.00,,---,0.00,VWS V14.01,2014-01-30 16:05:00,
2014-01-30 09:06:00,40.8,29.6,29.52,South,188,0.0,0.0,64,0.00,,---,0.00,VWS V14.01,2014-01-30 16:06:00,
2014-01-30 09:07:00,40.8,29.6,29.52,South,188,0.0,0.0,64,0.00,,---,0.00,VWS V14.01,2014-01-30 16:07:00,
2014-01-30 09:08:00,40.8,30.0,29.53,South,188,0.0,2.0,65,0.00,,---,0.00,VWS V14.01,2014-01-30 16:08:00,
2014-01-30 09:09:00,40.8,30.0,29.53,South,188,1.0,2.0,65,0.00,,---,0.00,VWS V14.01,2014-01-30 16:09:00,
2014-01-30 09:10:00,40.8,30.0,29.53,South,188,1.0,2.0,65,0.00,,---,0.00,VWS V14.01,2014-01-30 16:10:00,
2014-01-30 09:11:00,40.8,30.0,29.53,South,188,1.0,2.0,65,0.00,,---,0.00,VWS V14.01,2014-01-30 16:11:00,
2014-01-30 09:12:00,40.8,29.6,29.53,South,188,3.0,6.0,64,0.00,,---,0.00,VWS V14.01,2014-01-30 16:12:00,
2014-01-30 09:13:00,40.8,29.6,29.53,South,189,0.0,6.0,64,0.00,,---,0.00,VWS V14.01,2014-01-30 16:13:00,
2014-01-30 09:14:00,40.8,29.6,29.53,South,189,0.0,6.0,64,0.00,,---,0.00,VWS V14.01,2014-01-30 16:14:00,
2014-01-30 09:15:00,40.8,29.6,29.53,South,188,0.0,6.0,64,0.00,,---,0.00,VWS V14.01,2014-01-30 16:15:00,
2014-01-30 09:16:00,40.9,29.7,29.53,South,189,0.0,1.0,64,0.00,,---,0.00,VWS V14.01,2014-01-30 16:16:00,
2014-01-30 09:17:00,40.9,29.7,29.53,South,184,0.0,4.0,64,0.00,,---,0.00,VWS V14.01,2014-01-30 16:17:00,
2014-01-30 09:18:00,41.0,29.8,29.53,South,176,6.0,6.0,64,0.00,,---,0.00,VWS V14.01,2014-01-30 16:18:00,
2014-01-30 09:19:00,41.1,29.9,29.53,South,171,4.0,7.0,64,0.00,,---,0.00,VWS V14.01,2014-01-30 16:19:00,
2014-01-30 09:20:00,41.1,29.9,29.53,South,169,2.0,9.0,64,0.00,,---,0.00,VWS V14.01,2014-01-30 16:20:00,
2014-01-30 09:21:00,41.1,29.9,29.53,South,170,4.0,5.0,64,0.00,,---,0.00,VWS V14.01,2014-01-30 16:21:00,
2014-01-30 09:22:00,41.1,29.9,29.53,SSE,148,1.0,5.0,64,0.00,,---,0.00,VWS V14.01,2014-01-30 16:22:00,
2014-01-30 09:23:00,41.1,29.9,29.53,SSE,147,0.0,5.0,64,0.00,,---,0.00,VWS V14.01,2014-01-30 16:23:00,
2014-01-30 09:24:00,41.1,29.9,29.53,SE,146,0.0,5.0,64,0.00,,---,0.00,VWS V14.01,2014-01-30 16:24:00,
2014-01-30 09:25:00,41.1,29.9,29.53,SSE,148,0.0,5.0,64,0.00,,---,0.00,VWS V14.01,2014-01-30 16:25:00,
2014-01-30 09:26:00,41.1,29.9,29.53,SSE,166,0.0,7.0,64,0.00,,---,0.00,VWS V14.01,2014-01-30 16:26:00,
2014-01-30 09:27:00,41.1,29.9,29.53,SSE,168,0.0,7.0,64,0.00,,---,0.00,VWS V14.01,2014-01-30 16:27:00,
2014-01-30 09:28:00,41.1,29.9,29.53,South,171,7.0,7.0,64,0.00,,---,0.00,VWS V14.01,2014-01-30 16:28:00,
2014-01-30 09:29:00,41.1,29.9,29.53,South,178,3.0,8.0,64,0.00,,---,0.00,VWS V14.01,2014-01-30 16:29:00,
2014-01-30 09:30:00,41.1,29.9,29.53,South,178,2.0,8.0,64,0.00,,---,0.00,VWS V14.01,2014-01-30 16:30:00,
2014-01-30 09:31:00,41.1,30.2,29.53,South,182,6.0,6.0,65,0.00,,---,0.00,VWS V14.01,2014-01-30 16:31:00,
2014-01-30 09:32:00,41.1,29.9,29.54,South,185,2.0,6.0,64,0.00,,---,0.00,VWS V14.01,2014-01-30 16:32:00,
2014-01-30 09:33:00,41.1,29.9,29.54,South,185,0.0,6.0,64,0.00,,---,0.00,VWS V14.01,2014-01-30 16:33:00,
2014-01-30 09:34:00,41.1,29.9,29.53,South,185,0.0,6.0,64,0.00,,---,0.00,VWS V14.01,2014-01-30 16:34:00,
2014-01-30 09:35:00,41.1,29.9,29.53,South,184,1.0,6.0,64,0.00,,---,0.00,VWS V14.01,2014-01-30 16:35:00,
2014-01-30 09:36:00,41.1,29.9,29.53,South,186,1.0,2.0,64,0.00,,---,0.00,VWS V14.01,2014-01-30 16:36:00,
2014-01-30 09:37:00,41.1,29.9,29.53,South,185,2.0,4.0,64,0.00,,---,0.00,VWS V14.01,2014-01-30 16:37:00,
2014-01-30 09:38:00,41.1,29.9,29.53,South,184,2.0,4.0,64,0.00,,---,0.00,VWS V14.01,2014-01-30 16:38:00,
2014-01-30 09:39:00,41.1,30.2,29.53,South,185,0.0,4.0,65,0.00,,---,0.00,VWS V14.01,2014-01-30 16:39:00,
2014-01-30 09:40:00,41.1,30.2,29.53,South,187,1.0,4.0,65,0.00,,---,0.00,VWS V14.01,2014-01-30 16:40:00,
2014-01-30 09:41:00,41.2,30.0,29.53,South,170,6.0,7.0,64,0.00,,---,0.00,VWS V14.01,2014-01-30 16:41:00,
2014-01-30 09:42:00,41.2,30.0,29.53,South,173,5.0,8.0,64,0.00,,---,0.00,VWS V14.01,2014-01-30 16:42:00,
2014-01-30 09:43:00,41.2,30.0,29.53,South,173,4.0,8.0,64,0.00,,---,0.00,VWS V14.01,2014-01-30 16:43:00,
2014-01-30 09:44:00,41.2,30.0,29.53,South,173,6.0,8.0,64,0.00,,---,0.00,VWS V14.01,2014-01-30 16:44:00,
2014-01-30 09:45:00,41.2,30.0,29.53,South,173,0.0,8.0,64,0.00,,---,0.00,VWS V14.01,2014-01-30 16:45:00,
2014-01-30 09:46:00,41.3,30.1,29.53,South,173,3.0,3.0,64,0.00,,---,0.00,VWS V14.01,2014-01-30 16:46:00,
2014-01-30 09:47:00,41.3,30.1,29.53,SSE,167,0.0,7.0,64,0.00,,---,0.00,VWS V14.01,2014-01-30 16:47:00,
2014-01-30 09:48:00,41.4,30.1,29.53,SSE,168,1.0,7.0,64,0.00,,---,0.00,VWS V14.01,2014-01-30 16:48:00,
2014-01-30 09:49:00,41.5,30.2,29.53,SSE,168,2.0,7.0,64,0.00,,---,0.00,VWS V14.01,2014-01-30 16:49:00,
2014-01-30 09:50:00,41.6,30.3,29.52,South,169,3.0,7.0,64,0.00,,---,0.00,VWS V14.01,2014-01-30 16:50:00,
2014-01-30 09:51:00,41.7,30.0,29.51,South,174,4.0,8.0,63,0.00,,---,0.00,VWS V14.01,2014-01-30 16:51:00,
2014-01-30 09:52:00,41.8,30.1,29.52,South,173,1.0,8.0,63,0.00,,---,0.00,VWS V14.01,2014-01-30 16:52:00,
2014-01-30 09:53:00,41.9,30.2,29.52,South,173,0.0,8.0,63,0.00,,---,0.00,VWS V14.01,2014-01-30 16:53:00,
2014-01-30 09:54:00,42.1,30.4,29.52,South,172,0.0,8.0,63,0.00,,---,0.00,VWS V14.01,2014-01-30 16:54:00,
2014-01-30 09:55:00,42.2,30.1,29.51,South,169,0.0,8.0,62,0.00,,---,0.00,VWS V14.01,2014-01-30 16:55:00,
2014-01-30 09:56:00,42.4,30.3,29.52,South,169,0.0,1.0,62,0.00,,---,0.00,VWS V14.01,2014-01-30 16:56:00,
2014-01-30 09:57:00,42.5,30.4,29.52,SSE,163,0.0,1.0,62,0.00,,---,0.00,VWS V14.01,2014-01-30 16:57:00,
2014-01-30 09:58:00,42.6,30.5,29.52,SSE,163,0.0,1.0,62,0.00,,---,0.00,VWS V14.01,2014-01-30 16:58:00,
2014-01-30 09:59:00,42.7,30.6,29.52,SSE,165,5.0,5.0,62,0.00,,---,0.00,VWS V14.01,2014-01-30 16:59:00,
2014-01-30 10:00:00,42.9,30.8,29.52,SSE,167,4.0,7.0,62,0.00,,---,0.00,VWS V14.01,2014-01-30 17:00:00,
2014-01-30 10:01:00,42.9,30.4,29.52,South,169,0.0,5.0,61,0.00,,---,0.00,VWS V14.01,2014-01-30 17:01:00,
2014-01-30 10:02:00,42.9,30.4,29.52,SE,130,0.0,5.0,61,0.00,,---,0.00,VWS V14.01,2014-01-30 17:02:00,
2014-01-30 10:03:00,43.0,30.1,29.51,ESE,113,1.0,5.0,60,0.00,,---,0.00,VWS V14.01,2014-01-30 17:03:00,
2014-01-30 10:04:00,43.0,30.1,29.51,SE,138,1.0,5.0,60,0.00,,---,0.00,VWS V14.01,2014-01-30 17:04:00,
2014-01-30 10:05:00,43.0,30.1,29.51,SE,127,0.0,5.0,60,0.00,,---,0.00,VWS V14.01,2014-01-30 17:05:00,
2014-01-30 10:06:00,43.0,30.1,29.52,SE,133,0.0,2.0,60,0.00,,---,0.00,VWS V14.01,2014-01-30 17:06:00,
2014-01-30 10:07:00,43.0,30.1,29.52,SE,133,0.0,2.0,60,0.00,,---,0.00,VWS V14.01,2014-01-30 17:07:00,
2014-01-30 10:08:00,43.0,30.1,29.52,ESE,109,0.0,2.0,60,0.00,,---,0.00,VWS V14.01,2014-01-30 17:08:00,
2014-01-30 10:09:00,43.0,30.1,29.52,ESE,122,0.0,2.0,60,0.00,,---,0.00,VWS V14.01,2014-01-30 17:09:00,
2014-01-30 10:10:00,43.0,30.1,29.52,ESE,122,0.0,2.0,60,0.00,,---,0.00,VWS V14.01,2014-01-30 17:10:00,
2014-01-30 10:11:00,43.1,30.2,29.52,ESE,122,0.0,0.0,60,0.00,,---,0.00,VWS V14.01,2014-01-30 17:11:00,
2014-01-30 10:12:00,43.1,30.2,29.52,ESE,122,0.0,1.0,60,0.00,,---,0.00,VWS V14.01,2014-01-30 17:12:00,
2014-01-30 10:13:00,43.1,30.2,29.52,ESE,122,0.0,1.0,60,0.00,,---,0.00,VWS V14.01,2014-01-30 17:13:00,
2014-01-30 10:14:00,43.1,30.2,29.52,SE,132,0.0,4.0,60,0.00,,---,0.00,VWS V14.01,2014-01-30 17:14:00,
2014-01-30 10:15:00,43.1,30.2,29.51,SE,130,0.0,4.0,60,0.00,,---,0.00,VWS V14.01,2014-01-30 17:15:00,
2014-01-30 10:16:00,43.1,30.2,29.51,ESE,123,0.0,3.0,60,0.00,,---,0.00,VWS V14.01,2014-01-30 17:16:00,
2014-01-30 10:17:00,43.1,30.6,29.51,ESE,123,0.0,3.0,61,0.00,,---,0.00,VWS V14.01,2014-01-30 17:17:00,
2014-01-30 10:18:00,43.1,30.6,29.51,SE,125,0.0,3.0,61,0.00,,---,0.00,VWS V14.01,2014-01-30 17:18:00,
2014-01-30 10:19:00,43.1,30.2,29.51,SE,125,0.0,3.0,60,0.00,,---,0.00,VWS V14.01,2014-01-30 17:19:00,
2014-01-30 10:20:00,43.0,30.1,29.52,ESE,123,0.0,3.0,60,0.00,,---,0.00,VWS V14.01,2014-01-30 17:20:00,
2014-01-30 10:21:00,43.0,30.5,29.52,ESE,122,0.0,0.0,61,0.00,,---,0.00,VWS V14.01,2014-01-30 17:21:00,
2014-01-30 10:22:00,43.0,30.5,29.52,ESE,123,0.0,2.0,61,0.00,,---,0.00,VWS V14.01,2014-01-30 17:22:00,
2014-01-30 10:23:00,43.1,30.6,29.52,SSE,163,0.0,3.0,61,0.00,,---,0.00,VWS V14.01,2014-01-30 17:23:00,
2014-01-30 10:24:00,43.1,30.6,29.52,SE,141,0.0,3.0,61,0.00,,---,0.00,VWS V14.01,2014-01-30 17:24:00,
2014-01-30 10:25:00,43.2,30.7,29.52,SE,141,0.0,3.0,61,0.00,,---,0.00,VWS V14.01,2014-01-30 17:25:00,
2014-01-30 10:26:00,43.2,30.7,29.52,SE,141,0.0,1.0,61,0.00,,---,0.00,VWS V14.01,2014-01-30 17:26:00,
2014-01-30 10:27:00,43.2,30.7,29.52,SE,141,0.0,1.0,61,0.00,,---,0.00,VWS V14.01,2014-01-30 17:27:00,
2014-01-30 10:28:00,43.2,30.7,29.52,SE,142,2.0,2.0,61,0.00,,---,0.00,VWS V14.01,2014-01-30 17:28:00,
2014-01-30 10:29:00,43.2,30.7,29.52,SSE,159,5.0,5.0,61,0.00,,---,0.00,VWS V14.01,2014-01-30 17:29:00,
2014-01-30 10:30:00,43.3,30.8,29.52,SSE,159,0.0,5.0,61,0.00,,---,0.00,VWS V14.01,2014-01-30 17:30:00,
2014-01-30 10:31:00,43.4,30.5,29.52,SSE,151,0.0,1.0,60,0.00,,---,0.00,VWS V14.01,2014-01-30 17:31:00,
2014-01-30 10:32:00,43.5,30.5,29.52,SE,141,0.0,1.0,60,0.00,,---,0.00,VWS V14.01,2014-01-30 17:32:00,
2014-01-30 10:33:00,43.6,30.6,29.50,SE,141,0.0,1.0,60,0.00,,---,0.00,VWS V14.01,2014-01-30 17:33:00,
2014-01-30 10:34:00,43.7,30.7,29.50,SE,141,0.0,1.0,60,0.00,,---,0.00,VWS V14.01,2014-01-30 17:34:00,
2014-01-30 10:35:00,43.8,30.8,29.50,SE,140,0.0,2.0,60,0.00,,---,0.00,VWS V14.01,2014-01-30 17:35:00,
2014-01-30 10:36:00,43.9,30.5,29.50,SE,130,0.0,1.0,59,0.00,,---,0.00,VWS V14.01,2014-01-30 17:36:00,
2014-01-30 10:37:00,44.0,30.6,29.50,SE,131,0.0,1.0,59,0.00,,---,0.00,VWS V14.01,2014-01-30 17:37:00,
2014-01-30 10:38:00,44.0,30.6,29.49,SE,130,0.0,1.0,59,0.00,,---,0.00,VWS V14.01,2014-01-30 17:38:00,
2014-01-30 10:39:00,44.0,30.6,29.49,SE,131,0.0,1.0,59,0.00,,---,0.00,VWS V14.01,2014-01-30 17:39:00,
2014-01-30 10:40:00,44.1,30.7,29.49,South,177,0.0,9.0,59,0.00,,---,0.00,VWS V14.01,2014-01-30 17:40:00,
2014-01-30 10:41:00,44.1,30.7,29.49,South,175,4.0,6.0,59,0.00,,---,0.00,VWS V14.01,2014-01-30 17:41:00,
2014-01-30 10:42:00,44.1,30.7,29.49,South,175,0.0,6.0,59,0.00,,---,0.00,VWS V14.01,2014-01-30 17:42:00,
2014-01-30 10:43:00,44.2,30.8,29.50,SSE,164,1.0,6.0,59,0.00,,---,0.00,VWS V14.01,2014-01-30 17:43:00,
2014-01-30 10:44:00,44.3,30.9,29.49,SSE,164,1.0,6.0,59,0.00,,---,0.00,VWS V14.01,2014-01-30 17:44:00,
2014-01-30 10:45:00,44.3,30.9,29.49,SE,142,0.0,6.0,59,0.00,,---,0.00,VWS V14.01,2014-01-30 17:45:00,
2014-01-30 10:46:00,44.4,31.0,29.49,East,89,0.0,2.0,59,0.00,,---,0.00,VWS V14.01,2014-01-30 17:46:00,
2014-01-30 10:47:00,44.5,30.7,29.49,ESE,114,1.0,2.0,58,0.00,,---,0.00,VWS V14.01,2014-01-30 17:47:00,
2014-01-30 10:48:00,44.6,30.8,29.49,SSE,164,0.0,10.0,58,0.00,,---,0.00,VWS V14.01,2014-01-30 17:48:00,
2014-01-30 10:49:00,44.6,30.8,29.49,SE,146,0.0,10.0,58,0.00,,---,0.00,VWS V14.01,2014-01-30 17:49:00,
2014-01-30 10:50:00,44.7,30.4,29.49,SE,135,0.0,10.0,57,0.00,,---,0.00,VWS V14.01,2014-01-30 17:50:00,
2014-01-30 10:51:00,44.7,30.4,29.49,SE,133,0.0,1.0,57,0.00,,---,0.00,VWS V14.01,2014-01-30 17:51:00,
2014-01-30 10:52:00,44.7,30.4,29.49,SE,134,0.0,1.0,57,0.00,,---,0.00,VWS V14.01,2014-01-30 17:52:00,
2014-01-30 10:53:00,44.8,30.9,29.49,SE,134,0.0,1.0,58,0.00,,---,0.00,VWS V14.01,2014-01-30 17:53:00,
2014-01-30 10:54:00,44.8,30.5,29.49,ESE,123,0.0,3.0,57,0.00,,---,0.00,VWS V14.01,2014-01-30 17:54:00,
2014-01-30 10:55:00,44.8,30.5,29.49,ESE,102,0.0,5.0,57,0.00,,---,0.00,VWS V14.01,2014-01-30 17:55:00,
2014-01-30 10:56:00,44.7,30.0,29.49,ESE,108,0.0,2.0,56,0.00,,---,0.00,VWS V14.01,2014-01-30 17:56:00,
2014-01-30 10:57:00,44.7,30.4,29.49,ESE,122,1.0,4.0,57,0.00,,---,0.00,VWS V14.01,2014-01-30 17:57:00,
2014-01-30 10:58:00,44.7,30.4,29.49,ESE,122,0.0,4.0,57,0.00,,---,0.00,VWS V14.01,2014-01-30 17:58:00,
2014-01-30 10:59:00,44.7,30.4,29.49,ESE,102,0.0,4.0,57,0.00,,---,0.00,VWS V14.01,2014-01-30 17:59:00,
2014-01-30 11:00:00,44.6,30.3,29.49,ESE,102,0.0,4.0,57,0.00,,---,0.00,VWS V14.01,2014-01-30 18:00:00,
2014-01-30 11:01:00,44.6,30.3,29.49,SE,126,0.0,4.0,57,0.00,,---,0.00,VWS V14.01,2014-01-30 18:01:00,
2014-01-30 11:02:00,44.5,30.2,29.52,ESE,119,0.0,4.0,57,0.00,,---,0.00,VWS V14.01,2014-01-30 18:02:00,
2014-01-30 11:03:00,44.3,30.0,29.52,East,92,7.0,7.0,57,0.00,,---,0.00,VWS V14.01,2014-01-30 18:03:00,
2014-01-30 11:04:00,44.2,30.0,29.54,ESE,109,0.0,7.0,57,0.00,,---,0.00,VWS V14.01,2014-01-30 18:04:00,
2014-01-30 11:05:00,44.0,29.8,29.53,ESE,119,0.0,7.0,57,0.00,,---,0.00,VWS V14.01,2014-01-30 18:05:00,
2014-01-30 11:06:00,43.9,29.7,29.53,ESE,119,0.0,1.0,57,0.00,,---,0.00,VWS V14.01,2014-01-30 18:06:00,
2014-01-30 11:07:00,43.7,29.9,29.53,ESE,109,3.0,3.0,58,0.00,,---,0.00,VWS V14.01,2014-01-30 18:07:00,
2014-01-30 11:08:00,43.6,29.8,29.53,ESE,119,0.0,3.0,58,0.00,,---,0.00,VWS V14.01,2014-01-30 18:08:00,
2014-01-30 11:09:00,43.6,29.8,29.53,East,101,2.0,3.0,58,0.00,,---,0.00,VWS V14.01,2014-01-30 18:09:00,
2014-01-30 11:10:00,43.6,29.8,29.53,SE,127,0.0,5.0,58,0.00,,---,0.00,VWS V14.01,2014-01-30 18:10:00,
2014-01-30 11:11:00,43.6,29.8,29.53,SE,127,0.0,1.0,58,0.00,,---,0.00,VWS V14.01,2014-01-30 18:11:00,
2014-01-30 11:12:00,43.7,29.9,29.53,SE,141,0.0,2.0,58,0.00,,---,0.00,VWS V14.01,2014-01-30 18:12:00,
2014-01-30 11:13:00,43.8,30.0,29.53,SE,140,0.0,2.0,58,0.00,,---,0.00,VWS V14.01,2014-01-30 18:13:00,
2014-01-30 11:14:00,43.9,30.1,29.53,ESE,105,1.0,2.0,58,0.00,,---,0.00,VWS V14.01,2014-01-30 18:14:00,
2014-01-30 11:15:00,44.0,30.2,29.53,ESE,106,0.0,2.0,58,0.00,,---,0.00,VWS V14.01,2014-01-30 18:15:00,
2014-01-30 11:16:00,44.1,30.3,29.53,ESE,104,0.0,2.0,58,0.00,,---,0.00,VWS V14.01,2014-01-30 18:16:00,
2014-01-30 11:17:00,44.1,29.9,29.53,ESE,111,0.0,2.0,57,0.00,,---,0.00,VWS V14.01,2014-01-30 18:17:00,
2014-01-30 11:18:00,44.1,29.9,29.53,ESE,120,0.0,2.0,57,0.00,,---,0.00,VWS V14.01,2014-01-30 18:18:00,
2014-01-30 11:19:00,44.2,30.0,29.53,ESE,121,0.0,2.0,57,0.00,,---,0.00,VWS V14.01,2014-01-30 18:19:00,
2014-01-30 11:20:00,44.2,30.0,29.53,ESE,111,1.0,4.0,57,0.00,,---,0.00,VWS V14.01,2014-01-30 18:20:00,
2014-01-30 11:21:00,44.2,30.0,29.53,ESE,110,0.0,1.0,57,0.00,,---,0.00,VWS V14.01,2014-01-30 18:21:00,
2014-01-30 11:22:00,44.2,30.0,29.53,ESE,118,0.0,1.0,57,0.00,,---,0.00,VWS V14.01,2014-01-30 18:22:00,
2014-01-30 11:23:00,44.2,30.0,29.52,ESE,121,0.0,2.0,57,0.00,,---,0.00,VWS V14.01,2014-01-30 18:23:00,
2014-01-30 11:24:00,44.2,30.0,29.52,ESE,122,0.0,2.0,57,0.00,,---,0.00,VWS V14.01,2014-01-30 18:24:00,
2014-01-30 11:25:00,44.2,30.0,29.52,ESE,108,0.0,3.0,57,0.00,,---,0.00,VWS V14.01,2014-01-30 18:25:00,
2014-01-30 11:26:00,44.2,30.0,29.52,ESE,119,0.0,4.0,57,0.00,,---,0.00,VWS V14.01,2014-01-30 18:26:00,
2014-01-30 11:27:00,44.3,30.0,29.52,SSE,164,2.0,4.0,57,0.00,,---,0.00,VWS V14.01,2014-01-30 18:27:00,
2014-01-30 11:28:00,44.3,30.0,29.52,SSE,166,0.0,4.0,57,0.00,,---,0.00,VWS V14.01,2014-01-30 18:28:00,
2014-01-30 11:29:00,44.3,30.0,29.52,WSW,241,1.0,8.0,57,0.00,,---,0.00,VWS V14.01,2014-01-30 18:29:00,
2014-01-30 11:30:00,44.4,30.1,29.52,WSW,242,7.0,9.0,57,0.00,,---,0.00,VWS V14.01,2014-01-30 18:30:00,
2014-01-30 11:31:00,44.4,30.1,29.52,SW,223,6.0,8.0,57,0.00,,---,0.00,VWS V14.01,2014-01-30 18:31:00,
2014-01-30 11:32:00,44.3,30.0,29.52,WSW,246,4.0,10.0,57,0.00,,---,0.00,VWS V14.01,2014-01-30 18:32:00,
2014-01-30 11:33:00,44.3,30.0,29.52,SW,233,8.0,12.0,57,0.00,,---,0.00,VWS V14.01,2014-01-30 18:33:00,
2014-01-30 11:34:00,44.2,29.5,29.52,SW,227,6.0,12.0,56,0.00,,---,0.00,VWS V14.01,2014-01-30 18:34:00,
2014-01-30 11:35:00,44.2,30.0,29.51,SW,236,6.0,12.0,57,0.00,,---,0.00,VWS V14.01,2014-01-30 18:35:00,
2014-01-30 11:36:00,44.2,30.0,29.51,SSW,209,6.0,10.0,57,0.00,,---,0.00,VWS V14.01,2014-01-30 18:36:00,
2014-01-30 11:37:00,44.2,29.5,29.51,SSW,199,10.0,12.0,56,0.00,,---,0.00,VWS V14.01,2014-01-30 18:37:00,
2014-01-30 11:38:00,44.1,29.4,29.51,SSW,201,8.0,12.0,56,0.00,,---,0.00,VWS V14.01,2014-01-30 18:38:00,
2014-01-30 11:39:00,44.1,29.9,29.51,SW,229,8.0,12.0,57,0.00,,---,0.00,VWS V14.01,2014-01-30 18:39:00,
2014-01-30 11:40:00,44.0,29.3,29.51,WSW,256,11.0,12.0,56,0.00,,---,0.00,VWS V14.01,2014-01-30 18:40:00,
2014-01-30 11:41:00,44.0,29.3,29.51,SSW,202,14.0,14.0,56,0.00,,---,0.00,VWS V14.01,2014-01-30 18:41:00,
2014-01-30 11:42:00,43.9,29.2,29.51,SSW,207,8.0,14.0,56,0.00,,---,0.00,VWS V14.01,2014-01-30 18:42:00,
2014-01-30 11:43:00,43.8,29.1,29.51,SW,215,9.0,14.0,56,0.00,,---,0.00,VWS V14.01,2014-01-30 18:43:00,
2014-01-30 11:44:00,43.7,29.0,29.51,SW,217,4.0,14.0,56,0.00,,---,0.00,VWS V14.01,2014-01-30 18:44:00,
2014-01-30 11:45:00,43.6,29.0,29.51,SW,226,4.0,14.0,56,0.00,,---,0.00,VWS V14.01,2014-01-30 18:45:00,
2014-01-30 11:46:00,43.6,29.0,29.51,SW,226,6.0,11.0,56,0.00,,---,0.00,VWS V14.01,2014-01-30 18:46:00,
2014-01-30 11:47:00,43.7,29.0,29.51,SW,227,10.0,11.0,56,0.00,,---,0.00,VWS V14.01,2014-01-30 18:47:00,
2014-01-30 11:48:00,43.7,29.0,29.51,SW,236,4.0,11.0,56,0.00,,---,0.00,VWS V14.01,2014-01-30 18:48:00,
2014-01-30 11:49:00,43.8,29.1,29.51,West,259,12.0,12.0,56,0.00,,---,0.00,VWS V14.01,2014-01-30 18:49:00,
2014-01-30 11:50:00,43.8,29.1,29.50,SW,232,6.0,14.0,56,0.00,,---,0.00,VWS V14.01,2014-01-30 18:50:00,
2014-01-30 11:51:00,43.8,29.1,29.50,WSW,252,8.0,14.0,56,0.00,,---,0.00,VWS V14.01,2014-01-30 18:51:00,
2014-01-30 11:52:00,43.8,29.1,29.51,SW,223,12.0,15.0,56,0.00,,---,0.00,VWS V14.01,2014-01-30 18:52:00,
2014-01-30 11:53:00,43.7,29.0,29.50,SSW,207,11.0,15.0,56,0.00,,---,0.00,VWS V14.01,2014-01-30 18:53:00,
2014-01-30 11:54:00,43.6,29.0,29.50,West,266,16.0,16.0,56,0.00,,---,0.00,VWS V14.01,2014-01-30 18:54:00,
2014-01-30 11:55:00,43.5,28.9,29.50,West,261,16.0,16.0,56,0.00,,---,0.00,VWS V14.01,2014-01-30 18:55:00,
2014-01-30 11:56:00,43.3,28.7,29.51,WSW,255,9.0,20.0,56,0.00,,---,0.00,VWS V14.01,2014-01-30 18:56:00,
2014-01-30 11:57:00,43.2,28.6,29.51,SW,232,8.0,20.0,56,0.00,,---,0.00,VWS V14.01,2014-01-30 18:57:00,
2014-01-30 11:58:00,43.1,28.9,29.51,SW,217,6.0,20.0,57,0.00,,---,0.00,VWS V14.01,2014-01-30 18:58:00,
2014-01-30 11:59:00,43.0,29.2,29.51,West,263,6.0,20.0,58,0.00,,---,0.00,VWS V14.01,2014-01-30 18:59:00,
2014-01-30 12:00:00,42.9,29.2,29.50,SW,233,6.0,20.0,58,0.00,,---,0.00,VWS V14.01,2014-01-30 19:00:00,
2014-01-30 12:01:00,42.8,29.1,29.50,WSW,244,9.0,9.0,58,0.00,,---,0.00,VWS V14.01,2014-01-30 19:01:00,
2014-01-30 12:02:00,42.7,29.4,29.50,WSW,258,10.0,10.0,59,0.00,,---,0.00,VWS V14.01,2014-01-30 19:02:00,
2014-01-30 12:03:00,42.8,29.5,29.50,WSW,256,11.0,11.0,59,0.00,,---,0.00,VWS V14.01,2014-01-30 19:03:00,
2014-01-30 12:04:00,42.8,29.5,29.50,SW,215,3.0,11.0,59,0.00,,---,0.00,VWS V14.01,2014-01-30 19:04:00,
2014-01-30 12:05:00,42.8,29.5,29.50,SW,214,6.0,11.0,59,0.00,,---,0.00,VWS V14.01,2014-01-30 19:05:00,
2014-01-30 12:06:00,42.9,29.2,29.50,SSW,211,4.0,10.0,58,0.00,,---,0.00,VWS V14.01,2014-01-30 19:06:00,
2014-01-30 12:07:00,42.9,29.2,29.50,SW,236,9.0,11.0,58,0.00,,---,0.00,VWS V14.01,2014-01-30 19:07:00,
2014-01-30 12:08:00,42.9,29.2,29.50,SSW,205,6.0,13.0,58,0.00,,---,0.00,VWS V14.01,2014-01-30 19:08:00,
2014-01-30 12:09:00,42.8,29.1,29.50,WSW,246,12.0,13.0,58,0.00,,---,0.00,VWS V14.01,2014-01-30 19:09:00,
2014-01-30 12:10:00,42.8,29.1,29.50,SSW,209,5.0,13.0,58,0.00,,---,0.00,VWS V14.01,2014-01-30 19:10:00,
2014-01-30 12:11:00,42.8,29.5,29.50,SSW,205,10.0,10.0,59,0.00,,---,0.00,VWS V14.01,2014-01-30 19:11:00,
2014-01-30 12:12:00,42.8,29.1,29.50,SSW,194,9.0,10.0,58,0.00,,---,0.00,VWS V14.01,2014-01-30 19:12:00,
2014-01-30 12:13:00,42.7,29.0,29.50,SSW,202,13.0,13.0,58,0.00,,---,0.00,VWS V14.01,2014-01-30 19:13:00,
2014-01-30 12:14:00,42.7,29.0,29.50,SW,231,7.0,13.0,58,0.00,,---,0.00,VWS V14.01,2014-01-30 19:14:00,
2014-01-30 12:15:00,42.7,29.0,29.50,SW,218,6.0,13.0,58,0.00,,---,0.00,VWS V14.01,2014-01-30 19:15:00,
2014-01-30 12:16:00,42.7,29.0,29.49,WSW,253,5.0,9.0,58,0.00,,---,0.00,VWS V14.01,2014-01-30 19:16:00,
2014-01-30 12:17:00,42.7,29.0,29.50,West,259,9.0,9.0,58,0.00,,---,0.00,VWS V14.01,2014-01-30 19:17:00,
2014-01-30 12:18:00,42.7,29.0,29.50,West,261,7.0,11.0,58,0.00,,---,0.00,VWS V14.01,2014-01-30 19:18:00,
2014-01-30 12:19:00,42.7,29.0,29.49,SSW,194,8.0,11.0,58,0.00,,---,0.00,VWS V14.01,2014-01-30 19:19:00,
2014-01-30 12:20:00,42.8,28.6,29.49,WSW,244,10.0,11.0,57,0.00,,---,0.00,VWS V14.01,2014-01-30 19:20:00,
2014-01-30 12:21:00,42.9,28.3,29.50,WSW,241,6.0,11.0,56,0.00,,---,0.00,VWS V14.01,2014-01-30 19:21:00,
2014-01-30 12:22:00,43.0,28.4,29.50,SW,232,6.0,11.0,56,0.00,,---,0.00,VWS V14.01,2014-01-30 19:22:00,
2014-01-30 12:23:00,43.1,28.5,29.50,SW,229,4.0,11.0,56,0.00,,---,0.00,VWS V14.01,2014-01-30 19:23:00,
2014-01-30 12:24:00,43.3,28.7,29.50,SW,236,7.0,11.0,56,0.00,,---,0.00,VWS V14.01,2014-01-30 19:24:00,
2014-01-30 12:25:00,43.4,28.8,29.50,WSW,237,7.0,11.0,56,0.00,,---,0.00,VWS V14.01,2014-01-30 19:25:00,
2014-01-30 12:26:00,43.4,28.3,29.49,SW,235,7.0,9.0,55,0.00,,---,0.00,VWS V14.01,2014-01-30 19:26:00,
2014-01-30 12:27:00,43.6,28.5,29.49,WSW,246,5.0,9.0,55,0.00,,---,0.00,VWS V14.01,2014-01-30 19:27:00,
2014-01-30 12:28:00,43.6,28.5,29.49,WSW,248,7.0,9.0,55,0.00,,---,0.00,VWS V14.01,2014-01-30 19:28:00,
2014-01-30 12:29:00,43.7,28.6,29.49,WSW,246,5.0,9.0,55,0.00,,---,0.00,VWS V14.01,2014-01-30 19:29:00,
2014-01-30 12:30:00,43.7,28.6,29.49,WSW,244,4.0,10.0,55,0.00,,---,0.00,VWS V14.01,2014-01-30 19:30:00,
2014-01-30 12:31:00,43.7,28.6,29.49,SW,228,7.0,9.0,55,0.00,,---,0.00,VWS V14.01,2014-01-30 19:31:00,
2014-01-30 12:32:00,43.8,28.2,29.49,WSW,250,5.0,9.0,54,0.00,,---,0.00,VWS V14.01,2014-01-30 19:32:00,
2014-01-30 12:33:00,43.9,28.4,29.49,SW,236,4.0,9.0,54,0.00,,---,0.00,VWS V14.01,2014-01-30 19:33:00,
2014-01-30 12:34:00,44.0,28.4,29.49,SSW,208,9.0,9.0,54,0.00,,---,0.00,VWS V14.01,2014-01-30 19:34:00,
2014-01-30 12:35:00,44.1,28.5,29.49,SSW,212,10.0,10.0,54,0.00,,---,0.00,VWS V14.01,2014-01-30 19:35:00,
2014-01-30 12:36:00,44.1,28.5,29.49,SW,225,5.0,10.0,54,0.00,,---,0.00,VWS V14.01,2014-01-30 19:36:00,
2014-01-30 12:37:00,44.0,28.4,29.49,WSW,258,3.0,10.0,54,0.00,,---,0.00,VWS V14.01,2014-01-30 19:37:00,
2014-01-30 12:38:00,44.0,28.4,29.49,WSW,252,8.0,10.0,54,0.00,,---,0.00,VWS V14.01,2014-01-30 19:38:00,
2014-01-30 12:39:00,44.0,28.4,29.49,SW,236,4.0,10.0,54,0.00,,---,0.00,VWS V14.01,2014-01-30 19:39:00,
2014-01-30 12:40:00,44.1,28.5,29.49,SW,225,1.0,10.0,54,0.00,,---,0.00,VWS V14.01,2014-01-30 19:40:00,
2014-01-30 12:41:00,44.1,28.5,29.49,WSW,248,8.0,8.0,54,0.00,,---,0.00,VWS V14.01,2014-01-30 19:41:00,
2014-01-30 12:42:00,44.2,28.6,29.49,SW,230,6.0,10.0,54,0.00,,---,0.00,VWS V14.01,2014-01-30 19:42:00,
2014-01-30 12:43:00,44.2,28.6,29.49,West,259,6.0,10.0,54,0.00,,---,0.00,VWS V14.01,2014-01-30 19:43:00,
2014-01-30 12:44:00,44.2,28.6,29.49,WSW,242,5.0,10.0,54,0.00,,---,0.00,VWS V14.01,2014-01-30 19:44:00,
2014-01-30 12:45:00,44.2,27.7,29.49,SSW,200,7.0,11.0,52,0.00,,---,0.00,VWS V14.01,2014-01-30 19:45:00,
2014-01-30 12:46:00,44.3,27.8,29.49,WSW,242,6.0,8.0,52,0.00,,---,0.00,VWS V14.01,2014-01-30 19:46:00,
2014-01-30 12:47:00,44.3,27.8,29.49,West,259,9.0,9.0,52,0.00,,---,0.00,VWS V14.01,2014-01-30 19:47:00,
2014-01-30 12:48:00,44.4,28.4,29.49,West,262,8.0,10.0,53,0.00,,---,0.00,VWS V14.01,2014-01-30 19:48:00,
2014-01-30 12:49:00,44.4,28.4,29.49,WSW,252,6.0,10.0,53,0.00,,---,0.00,VWS V14.01,2014-01-30 19:49:00,
2014-01-30 12:50:00,44.5,28.5,29.49,WSW,246,7.0,10.0,53,0.00,,---,0.00,VWS V14.01,2014-01-30 19:50:00,
2014-01-30 12:51:00,44.5,28.5,29.48,West,268,7.0,11.0,53,0.00,,---,0.00,VWS V14.01,2014-01-30 19:51:00,
2014-01-30 12:52:00,44.5,28.0,29.48,SW,234,4.0,11.0,52,0.00,,---,0.00,VWS V14.01,2014-01-30 19:52:00,
2014-01-30 12:53:00,44.6,28.1,29.48,WSW,237,5.0,11.0,52,0.00,,---,0.00,VWS V14.01,2014-01-30 19:53:00,
2014-01-30 12:54:00,44.6,28.1,29.48,WSW,255,8.0,11.0,52,0.00,,---,0.00,VWS V14.01,2014-01-30 19:54:00,
2014-01-30 12:55:00,44.6,27.6,29.47,SSW,196,10.0,16.0,51,0.00,,---,0.00,VWS V14.01,2014-01-30 19:55:00,
2014-01-30 12:56:00,44.5,27.5,29.48,SW,221,4.0,15.0,51,0.00,,---,0.00,VWS V14.01,2014-01-30 19:56:00,
2014-01-30 12:57:00,44.5,27.5,29.48,West,267,8.0,15.0,51,0.00,,---,0.00,VWS V14.01,2014-01-30 19:57:00,
2014-01-30 12:58:00,44.5,27.5,29.48,WSW,256,8.0,15.0,51,0.00,,---,0.00,VWS V14.01,2014-01-30 19:58:00,
2014-01-30 12:59:00,44.5,27.0,29.48,SW,215,6.0,15.0,50,0.00,,---,0.00,VWS V14.01,2014-01-30 19:59:00,
2014-01-30 13:00:00,44.3,27.3,29.47,WSW,252,8.0,15.0,51,0.00,,---,0.00,VWS V14.01,2014-01-30 20:00:00,
2014-01-30 13:01:00,44.2,27.2,29.47,SSW,213,7.0,15.0,51,0.00,,---,0.00,VWS V14.01,2014-01-30 20:01:00,
2014-01-30 13:02:00,44.2,27.2,29.47,SSW,209,10.0,16.0,51,0.00,,---,0.00,VWS V14.01,2014-01-30 20:02:00,
2014-01-30 13:03:00,44.2,27.2,29.47,WSW,241,9.0,16.0,51,0.00,,---,0.00,VWS V14.01,2014-01-30 20:03:00,
2014-01-30 13:04:00,44.2,27.2,29.47,WSW,248,15.0,16.0,51,0.00,,---,0.00,VWS V14.01,2014-01-30 20:04:00,
2014-01-30 13:05:00,44.1,27.1,29.47,WSW,248,11.0,16.0,51,0.00,,---,0.00,VWS V14.01,2014-01-30 20:05:00,
2014-01-30 13:06:00,44.0,27.0,29.47,WSW,250,10.0,16.0,51,0.00,,---,0.00,VWS V14.01,2014-01-30 20:06:00,
2014-01-30 13:07:00,43.7,28.2,29.47,WNW,284,5.0,16.0,54,0.00,,---,0.00,VWS V14.01,2014-01-30 20:07:00,
2014-01-30 13:08:00,43.1,30.2,29.47,West,268,8.0,16.0,60,0.00,,---,0.00,VWS V14.01,2014-01-30 20:08:00,
2014-01-30 13:09:00,42.4,30.3,29.49,WSW,254,5.0,16.0,62,0.00,,---,0.00,VWS V14.01,2014-01-30 20:09:00,
2014-01-30 13:10:00,41.8,30.5,29.48,WNW,282,9.0,16.0,64,0.00,,---,0.00,VWS V14.01,2014-01-30 20:10:00,
2014-01-30 13:11:00,41.1,30.2,29.48,West,279,7.0,10.0,65,0.00,,---,0.00,VWS V14.01,2014-01-30 20:11:00,
2014-01-30 13:12:00,40.6,30.5,29.50,WSW,248,3.0,10.0,67,0.00,,---,0.00,VWS V14.01,2014-01-30 20:12:00,
2014-01-30 13:13:00,40.4,30.7,29.50,WSW,257,8.0,10.0,68,0.00,,---,0.00,VWS V14.01,2014-01-30 20:13:00,
2014-01-30 13:14:00,40.2,30.9,29.50,West,273,4.0,10.0,69,0.00,,---,0.00,VWS V14.01,2014-01-30 20:14:00,
2014-01-30 13:15:00,40.0,31.0,29.50,West,279,4.0,10.0,70,0.00,,---,0.00,VWS V14.01,2014-01-30 20:15:00,
2014-01-30 13:16:00,39.8,31.2,29.50,WSW,258,5.0,9.0,71,0.00,,---,0.00,VWS V14.01,2014-01-30 20:16:00,
2014-01-30 13:17:00,39.6,31.0,29.50,WNW,287,8.0,9.0,71,0.00,,---,0.00,VWS V14.01,2014-01-30 20:17:00,
2014-01-30 13:18:00,39.6,31.0,29.50,West,275,6.0,9.0,71,0.00,,---,0.00,VWS V14.01,2014-01-30 20:18:00,
2014-01-30 13:19:00,39.5,31.2,29.50,West,277,2.0,9.0,72,0.00,,---,0.00,VWS V14.01,2014-01-30 20:19:00,
2014-01-30 13:20:00,39.6,31.3,29.50,West,276,2.0,9.0,72,0.00,,---,0.00,VWS V14.01,2014-01-30 20:20:00,
2014-01-30 13:21:00,39.7,31.4,29.50,West,276,1.0,5.0,72,0.00,,---,0.00,VWS V14.01,2014-01-30 20:21:00,
2014-01-30 13:22:00,39.8,31.5,29.50,West,276,3.0,5.0,72,0.00,,---,0.00,VWS V14.01,2014-01-30 20:22:00,
2014-01-30 13:23:00,40.0,31.7,29.50,West,280,3.0,8.0,72,0.00,,---,0.00,VWS V14.01,2014-01-30 20:23:00,
2014-01-30 13:24:00,40.2,31.9,29.49,West,280,1.0,8.0,72,0.00,,---,0.00,VWS V14.01,2014-01-30 20:24:00,
2014-01-30 13:25:00,40.5,31.9,29.49,West,280,0.0,8.0,71,0.00,,---,0.00,VWS V14.01,2014-01-30 20:25:00,
2014-01-30 13:26:00,40.7,31.7,29.49,North,10,0.0,6.0,70,0.00,,---,0.00,VWS V14.01,2014-01-30 20:26:00,
2014-01-30 13:27:00,40.9,31.9,29.49,North,10,1.0,6.0,70,0.00,,---,0.00,VWS V14.01,2014-01-30 20:27:00,
2014-01-30 13:28:00,41.1,32.1,29.49,SW,217,5.0,6.0,70,0.00,,---,0.00,VWS V14.01,2014-01-30 20:28:00,
2014-01-30 13:29:00,41.2,32.2,29.50,SW,215,0.0,6.0,70,0.00,,---,0.00,VWS V14.01,2014-01-30 20:29:00,
2014-01-30 13:30:00,41.3,32.3,29.49,WSW,247,5.0,6.0,70,0.00,,---,0.00,VWS V14.01,2014-01-30 20:30:00,
2014-01-30 13:31:00,41.2,31.5,29.49,North,10,1.0,10.0,68,0.00,,---,0.00,VWS V14.01,2014-01-30 20:31:00,
2014-01-30 13:32:00,41.1,31.4,29.49,South,186,3.0,10.0,68,0.00,,---,0.00,VWS V14.01,2014-01-30 20:32:00,
2014-01-30 13:33:00,41.2,31.8,29.50,WSW,244,7.0,10.0,69,0.00,,---,0.00,VWS V14.01,2014-01-30 20:33:00,
2014-01-30 13:34:00,41.2,31.8,29.49,WSW,242,1.0,10.0,69,0.00,,---,0.00,VWS V14.01,2014-01-30 20:34:00,
2014-01-30 13:35:00,41.1,31.7,29.49,WSW,249,4.0,10.0,69,0.00,,---,0.00,VWS V14.01,2014-01-30 20:35:00,
2014-01-30 13:36:00,41.0,31.6,29.48,WSW,253,0.0,4.0,69,0.00,,---,0.00,VWS V14.01,2014-01-30 20:36:00,
2014-01-30 13:37:00,41.0,33.0,29.49,SW,229,7.0,9.0,73,0.00,,---,0.00,VWS V14.01,2014-01-30 20:37:00,
2014-01-30 13:38:00,41.0,32.0,29.49,WSW,244,5.0,9.0,70,0.00,,---,0.00,VWS V14.01,2014-01-30 20:38:00,
2014-01-30 13:39:00,40.9,31.9,29.49,WSW,248,1.0,9.0,70,0.00,,---,0.00,VWS V14.01,2014-01-30 20:39:00,
2014-01-30 13:40:00,40.7,31.3,29.49,NW,316,5.0,9.0,69,0.00,,---,0.00,VWS V14.01,2014-01-30 20:40:00,
2014-01-30 13:41:00,40.7,31.7,29.49,WSW,241,1.0,7.0,70,0.00,,---,0.00,VWS V14.01,2014-01-30 20:41:00,
2014-01-30 13:42:00,40.6,31.6,29.49,WSW,241,0.0,7.0,70,0.00,,---,0.00,VWS V14.01,2014-01-30 20:42:00,
2014-01-30 13:43:00,40.6,32.0,29.49,WSW,241,1.0,7.0,71,0.00,,---,0.00,VWS V14.01,2014-01-30 20:43:00,
2014-01-30 13:44:00,40.6,32.0,29.49,WSW,242,2.0,7.0,71,0.00,,---,0.00,VWS V14.01,2014-01-30 20:44:00,
2014-01-30 13:45:00,40.6,31.6,29.49,SSW,196,8.0,11.0,70,0.00,,---,0.00,VWS V14.01,2014-01-30 20:45:00,
2014-01-30 13:46:00,40.5,31.9,29.49,West,269,6.0,9.0,71,0.00,,---,0.00,VWS V14.01,2014-01-30 20:46:00,
2014-01-30 13:47:00,40.4,31.8,29.49,West,280,5.0,10.0,71,0.00,,---,0.00,VWS V14.01,2014-01-30 20:47:00,
2014-01-30 13:48:00,40.2,31.6,29.49,West,280,2.0,10.0,71,0.00,,---,0.00,VWS V14.01,2014-01-30 20:48:00,
2014-01-30 13:49:00,40.2,31.9,29.49,SW,223,6.0,10.0,72,0.00,,---,0.00,VWS V14.01,2014-01-30 20:49:00,
2014-01-30 13:50:00,40.2,32.2,29.49,SW,229,2.0,10.0,73,0.00,,---,0.00,VWS V14.01,2014-01-30 20:50:00,
2014-01-30 13:51:00,40.2,31.9,29.49,SW,229,0.0,3.0,72,0.00,,---,0.00,VWS V14.01,2014-01-30 20:51:00,
2014-01-30 13:52:00,40.2,32.2,29.49,SW,229,0.0,3.0,73,0.00,,---,0.00,VWS V14.01,2014-01-30 20:52:00,
2014-01-30 13:53:00,40.3,32.3,29.49,WSW,240,3.0,5.0,73,0.00,,---,0.00,VWS V14.01,2014-01-30 20:53:00,
2014-01-30 13:54:00,40.3,32.3,29.49,WSW,247,2.0,7.0,73,0.00,,---,0.00,VWS V14.01,2014-01-30 20:54:00,
2014-01-30 13:55:00,40.3,32.3,29.49,SW,217,7.0,7.0,73,0.00,,---,0.00,VWS V14.01,2014-01-30 20:55:00,
2014-01-30 13:56:00,40.2,32.2,29.49,SW,221,6.0,7.0,73,0.00,,---,0.00,VWS V14.01,2014-01-30 20:56:00,
2014-01-30 13:57:00,40.1,32.2,29.49,SW,230,3.0,8.0,73,0.00,,---,0.00,VWS V14.01,2014-01-30 20:57:00,
2014-01-30 13:58:00,40.0,32.1,29.49,WSW,238,3.0,8.0,73,0.00,,---,0.00,VWS V14.01,2014-01-30 20:58:00,
2014-01-30 13:59:00,40.0,32.1,29.49,West,265,2.0,8.0,73,0.00,,---,0.00,VWS V14.01,2014-01-30 20:59:00,
2014-01-30 14:00:00,39.9,32.3,29.49,WSW,252,6.0,10.0,74,0.00,,---,0.00,VWS V14.01,2014-01-30 21:00:00,
2014-01-30 14:01:00,39.9,31.6,29.49,WSW,249,8.0,10.0,72,0.00,,---,0.00,VWS V14.01,2014-01-30 21:01:00,
2014-01-30 14:02:00,40.0,31.0,29.49,WSW,250,6.0,10.0,70,0.00,,---,0.00,VWS V14.01,2014-01-30 21:02:00,
2014-01-30 14:03:00,40.4,30.0,29.49,SSW,203,11.0,20.0,66,0.00,,---,0.00,VWS V14.01,2014-01-30 21:03:00,
2014-01-30 14:04:00,41.1,29.5,29.49,SW,223,9.0,20.0,63,0.00,,---,0.00,VWS V14.01,2014-01-30 21:04:00,
2014-01-30 14:05:00,41.6,29.2,29.47,SW,215,8.0,20.0,61,0.00,,---,0.00,VWS V14.01,2014-01-30 21:05:00,
2014-01-30 14:06:00,42.0,29.1,29.47,SW,214,9.0,9.0,60,0.00,,---,0.00,VWS V14.01,2014-01-30 21:06:00,
2014-01-30 14:07:00,42.3,28.6,29.47,SW,215,7.0,11.0,58,0.00,,---,0.00,VWS V14.01,2014-01-30 21:07:00,
2014-01-30 14:08:00,42.5,28.8,29.48,SW,227,6.0,11.0,58,0.00,,---,0.00,VWS V14.01,2014-01-30 21:08:00,
2014-01-30 14:09:00,42.5,28.8,29.48,WSW,240,9.0,16.0,58,0.00,,---,0.00,VWS V14.01,2014-01-30 21:09:00,
2014-01-30 14:10:00,42.6,28.5,29.46,West,263,8.0,16.0,57,0.00,,---,0.00,VWS V14.01,2014-01-30 21:10:00,
2014-01-30 14:11:00,42.6,28.9,29.46,WSW,243,5.0,11.0,58,0.00,,---,0.00,VWS V14.01,2014-01-30 21:11:00,
2014-01-30 14:12:00,42.3,29.8,29.46,WSW,257,5.0,11.0,61,0.00,,---,0.00,VWS V14.01,2014-01-30 21:12:00,
2014-01-30 14:13:00,42.0,30.3,29.47,West,264,4.0,11.0,63,0.00,,---,0.00,VWS V14.01,2014-01-30 21:13:00,
2014-01-30 14:14:00,41.6,30.3,29.47,West,281,6.0,11.0,64,0.00,,---,0.00,VWS V14.01,2014-01-30 21:14:00,
2014-01-30 14:15:00,41.1,30.2,29.47,West,278,1.0,11.0,65,0.00,,---,0.00,VWS V14.01,2014-01-30 21:15:00,
2014-01-30 14:16:00,40.9,30.4,29.47,West,279,2.0,6.0,66,0.00,,---,0.00,VWS V14.01,2014-01-30 21:16:00,
2014-01-30 14:17:00,40.5,30.4,29.48,West,268,7.0,7.0,67,0.00,,---,0.00,VWS V14.01,2014-01-30 21:17:00,
2014-01-30 14:18:00,40.1,30.4,29.49,West,274,7.0,8.0,68,0.00,,---,0.00,VWS V14.01,2014-01-30 21:18:00,
2014-01-30 14:19:00,39.8,30.5,29.49,SW,222,8.0,8.0,69,0.00,,---,0.00,VWS V14.01,2014-01-30 21:19:00,
2014-01-30 14:20:00,39.7,30.4,29.49,WSW,238,6.0,8.0,69,0.00,,---,0.00,VWS V14.01,2014-01-30 21:20:00,
2014-01-30 14:21:00,39.8,29.8,29.49,West,261,12.0,14.0,67,0.00,,---,0.00,VWS V14.01,2014-01-30 21:21:00,
2014-01-30 14:22:00,40.0,29.9,29.49,SW,216,7.0,14.0,67,0.00,,---,0.00,VWS V14.01,2014-01-30 21:22:00,
2014-01-30 14:23:00,40.1,30.4,29.49,WSW,253,6.0,14.0,68,0.00,,---,0.00,VWS V14.01,2014-01-30 21:23:00,
2014-01-30 14:24:00,40.3,29.9,29.50,SW,232,3.0,14.0,66,0.00,,---,0.00,VWS V14.01,2014-01-30 21:24:00,
2014-01-30 14:25:00,40.7,29.1,29.49,WSW,243,4.0,14.0,63,0.00,,---,0.00,VWS V14.01,2014-01-30 21:25:00,
2014-01-30 14:26:00,41.0,29.0,29.47,SW,219,7.0,11.0,62,0.00,,---,0.00,VWS V14.01,2014-01-30 21:26:00,
2014-01-30 14:27:00,41.4,29.0,29.47,West,269,12.0,12.0,61,0.00,,---,0.00,VWS V14.01,2014-01-30 21:27:00,
2014-01-30 14:28:00,41.6,28.8,29.47,SW,225,4.0,12.0,60,0.00,,---,0.00,VWS V14.01,2014-01-30 21:28:00,
2014-01-30 14:29:00,41.7,28.9,29.48,West,279,7.0,12.0,60,0.00,,---,0.00,VWS V14.01,2014-01-30 21:29:00,
2014-01-30 14:30:00,41.7,29.7,29.47,West,263,6.0,14.0,62,0.00,,---,0.00,VWS V14.01,2014-01-30 21:30:00,
2014-01-30 14:31:00,41.4,30.1,29.47,WSW,254,7.0,10.0,64,0.00,,---,0.00,VWS V14.01,2014-01-30 21:31:00,
2014-01-30 14:32:00,40.9,30.4,29.47,WNW,287,9.0,10.0,66,0.00,,---,0.00,VWS V14.01,2014-01-30 21:32:00,
2014-01-30 14:33:00,40.3,30.2,29.47,WNW,285,2.0,10.0,67,0.00,,---,0.00,VWS V14.01,2014-01-30 21:33:00,
2014-01-30 14:34:00,39.9,30.6,29.49,West,281,2.0,10.0,69,0.00,,---,0.00,VWS V14.01,2014-01-30 21:34:00,
2014-01-30 14:35:00,39.5,30.5,29.49,WNW,286,8.0,10.0,70,0.00,,---,0.00,VWS V14.01,2014-01-30 21:35:00,
2014-01-30 14:36:00,39.2,30.6,29.48,WSW,256,1.0,7.0,71,0.00,,---,0.00,VWS V14.01,2014-01-30 21:36:00,
2014-01-30 14:37:00,39.0,30.8,29.49,SSW,211,4.0,7.0,72,0.00,,---,0.00,VWS V14.01,2014-01-30 21:37:00,
2014-01-30 14:38:00,39.0,30.4,29.48,WSW,243,11.0,13.0,71,0.00,,---,0.00,VWS V14.01,2014-01-30 21:38:00,
2014-01-30 14:39:00,39.3,30.0,29.48,West,277,8.0,13.0,69,0.00,,---,0.00,VWS V14.01,2014-01-30 21:39:00,
2014-01-30 14:40:00,39.3,30.4,29.48,WSW,242,6.0,13.0,70,0.00,,---,0.00,VWS V14.01,2014-01-30 21:40:00,
2014-01-30 14:41:00,39.1,30.5,29.48,SW,225,4.0,8.0,71,0.00,,---,0.00,VWS V14.01,2014-01-30 21:41:00,
2014-01-30 14:42:00,39.0,30.8,29.48,WSW,247,4.0,8.0,72,0.00,,---,0.00,VWS V14.01,2014-01-30 21:42:00,
2014-01-30 14:43:00,38.8,30.6,29.49,WSW,254,6.0,10.0,72,0.00,,---,0.00,VWS V14.01,2014-01-30 21:43:00,
2014-01-30 14:44:00,38.8,30.6,29.48,WSW,240,4.0,10.0,72,0.00,,---,0.00,VWS V14.01,2014-01-30 21:44:00,
2014-01-30 14:45:00,38.9,30.3,29.48,SW,230,7.0,10.0,71,0.00,,---,0.00,VWS V14.01,2014-01-30 21:45:00,
2014-01-30 14:46:00,39.2,30.2,29.48,SW,215,6.0,7.0,70,0.00,,---,0.00,VWS V14.01,2014-01-30 21:46:00,
2014-01-30 14:47:00,39.6,29.6,29.48,WSW,254,11.0,11.0,67,0.00,,---,0.00,VWS V14.01,2014-01-30 21:47:00,
2014-01-30 14:48:00,39.9,29.5,29.48,SSW,207,5.0,12.0,66,0.00,,---,0.00,VWS V14.01,2014-01-30 21:48:00,
2014-01-30 14:49:00,40.3,29.5,29.48,SSW,197,14.0,14.0,65,0.00,,---,0.00,VWS V14.01,2014-01-30 21:49:00,
2014-01-30 14:50:00,40.6,29.0,29.48,SSW,207,10.0,14.0,63,0.00,,---,0.00,VWS V14.01,2014-01-30 21:50:00,
2014-01-30 14:51:00,41.0,29.0,29.46,WSW,238,8.0,14.0,62,0.00,,---,0.00,VWS V14.01,2014-01-30 21:51:00,
2014-01-30 14:52:00,41.4,29.0,29.46,WSW,252,14.0,14.0,61,0.00,,---,0.00,VWS V14.01,2014-01-30 21:52:00,
2014-01-30 14:53:00,41.6,28.4,29.46,SW,219,8.0,20.0,59,0.00,,---,0.00,VWS V14.01,2014-01-30 21:53:00,
2014-01-30 14:54:00,41.8,28.1,29.47,SSW,192,12.0,20.0,58,0.00,,---,0.00,VWS V14.01,2014-01-30 21:54:00,
2014-01-30 14:55:00,42.0,28.3,29.47,SW,220,8.0,20.0,58,0.00,,---,0.00,VWS V14.01,2014-01-30 21:55:00,
2014-01-30 14:56:00,42.1,28.4,29.47,WSW,242,16.0,18.0,58,0.00,,---,0.00,VWS V14.01,2014-01-30 21:56:00,
2014-01-30 14:57:00,42.1,28.0,29.47,SW,216,9.0,18.0,57,0.00,,---,0.00,VWS V14.01,2014-01-30 21:57:00,
2014-01-30 14:58:00,42.1,28.4,29.48,WSW,252,8.0,18.0,58,0.00,,---,0.00,VWS V14.01,2014-01-30 21:58:00,
2014-01-30 14:59:00,42.0,28.3,29.48,WSW,246,11.0,18.0,58,0.00,,---,0.00,VWS V14.01,2014-01-30 21:59:00,
2014-01-30 15:00:00,41.9,28.2,29.48,SW,219,8.0,18.0,58,0.00,,---,0.00,VWS V14.01,2014-01-30 22:00:00,
2014-01-30 15:01:00,41.9,28.2,29.49,WSW,247,6.0,12.0,58,0.00,,---,0.00,VWS V14.01,2014-01-30 22:01:00,
2014-01-30 15:02:00,41.8,28.1,29.49,WSW,249,12.0,12.0,58,0.00,,---,0.00,VWS V14.01,2014-01-30 22:02:00,
2014-01-30 15:03:00,41.8,28.1,29.49,SW,217,8.0,13.0,58,0.00,,---,0.00,VWS V14.01,2014-01-30 22:03:00,
2014-01-30 15:04:00,41.8,28.1,29.49,SW,231,9.0,13.0,58,0.00,,---,0.00,VWS V14.01,2014-01-30 22:04:00,
2014-01-30 15:05:00,41.8,28.1,29.49,SW,214,7.0,13.0,58,0.00,,---,0.00,VWS V14.01,2014-01-30 22:05:00,
2014-01-30 15:06:00,41.7,28.0,29.49,WSW,247,14.0,18.0,58,0.00,,---,0.00,VWS V14.01,2014-01-30 22:06:00,
2014-01-30 15:07:00,41.7,28.0,29.49,West,265,9.0,18.0,58,0.00,,---,0.00,VWS V14.01,2014-01-30 22:07:00,
2014-01-30 15:08:00,41.8,28.1,29.49,SW,216,1.0,18.0,58,0.00,,---,0.00,VWS V14.01,2014-01-30 22:08:00,
2014-01-30 15:09:00,41.8,28.1,29.48,WSW,243,7.0,18.0,58,0.00,,---,0.00,VWS V14.01,2014-01-30 22:09:00,
2014-01-30 15:10:00,41.8,28.1,29.48,West,263,8.0,18.0,58,0.00,,---,0.00,VWS V14.01,2014-01-30 22:10:00,
2014-01-30 15:11:00,41.8,28.1,29.48,SSW,192,5.0,10.0,58,0.00,,---,0.00,VWS V14.01,2014-01-30 22:11:00,
2014-01-30 15:12:00,41.7,28.0,29.48,SSW,213,8.0,11.0,58,0.00,,---,0.00,VWS V14.01,2014-01-30 22:12:00,
2014-01-30 15:13:00,41.6,27.9,29.48,SW,218,3.0,11.0,58,0.00,,---,0.00,VWS V14.01,2014-01-30 22:13:00,
2014-01-30 15:14:00,41.6,28.4,29.48,SW,232,2.0,11.0,59,0.00,,---,0.00,VWS V14.01,2014-01-30 22:14:00,
2014-01-30 15:15:00,41.5,28.3,29.48,SSW,194,4.0,11.0,59,0.00,,---,0.00,VWS V14.01,2014-01-30 22:15:00,
2014-01-30 15:16:00,41.5,28.3,29.48,SW,214,4.0,7.0,59,0.00,,---,0.00,VWS V14.01,2014-01-30 22:16:00,
2014-01-30 15:17:00,41.5,28.3,29.48,South,178,2.0,9.0,59,0.00,,---,0.00,VWS V14.01,2014-01-30 22:17:00,
2014-01-30 15:18:00,41.5,28.3,29.48,SW,223,4.0,9.0,59,0.00,,---,0.00,VWS V14.01,2014-01-30 22:18:00,
2014-01-30 15:19:00,41.5,28.3,29.48,SW,220,4.0,9.0,59,0.00,,---,0.00,VWS V14.01,2014-01-30 22:19:00,
2014-01-30 15:20:00,41.5,28.3,29.48,SSW,195,5.0,9.0,59,0.00,,---,0.00,VWS V14.01,2014-01-30 22:20:00,
2014-01-30 15:21:00,41.6,28.4,29.48,SSW,202,4.0,12.0,59,0.00,,---,0.00,VWS V14.01,2014-01-30 22:21:00,
2014-01-30 15:22:00,41.7,28.0,29.48,SSW,200,3.0,13.0,58,0.00,,---,0.00,VWS V14.01,2014-01-30 22:22:00,
2014-01-30 15:23:00,41.8,28.1,29.48,SSW,202,1.0,13.0,58,0.00,,---,0.00,VWS V14.01,2014-01-30 22:23:00,
2014-01-30 15:24:00,41.8,28.1,29.48,SW,221,1.0,13.0,58,0.00,,---,0.00,VWS V14.01,2014-01-30 22:24:00,
2014-01-30 15:25:00,41.9,28.6,29.48,SSW,204,10.0,13.0,59,0.00,,---,0.00,VWS V14.01,2014-01-30 22:25:00,
2014-01-30 15:26:00,41.9,28.2,29.48,WSW,250,12.0,12.0,58,0.00,,---,0.00,VWS V14.01,2014-01-30 22:26:00,
2014-01-30 15:27:00,41.9,27.8,29.48,SSE,165,9.0,12.0,57,0.00,,---,0.00,VWS V14.01,2014-01-30 22:27:00,
2014-01-30 15:28:00,41.9,28.2,29.48,SSW,202,4.0,12.0,58,0.00,,---,0.00,VWS V14.01,2014-01-30 22:28:00,
2014-01-30 15:29:00,41.9,27.8,29.48,SSW,209,4.0,13.0,57,0.00,,---,0.00,VWS V14.01,2014-01-30 22:29:00,
2014-01-30 15:30:00,41.9,27.8,29.48,South,188,2.0,13.0,57,0.00,,---,0.00,VWS V14.01,2014-01-30 22:30:00,
2014-01-30 15:31:00,42.0,27.9,29.48,South,190,1.0,10.0,57,0.00,,---,0.00,VWS V14.01,2014-01-30 22:31:00,
2014-01-30 15:32:00,42.0,27.9,29.48,SW,222,3.0,10.0,57,0.00,,---,0.00,VWS V14.01,2014-01-30 22:32:00,
2014-01-30 15:33:00,42.1,28.0,29.48,South,189,6.0,10.0,57,0.00,,---,0.00,VWS V14.01,2014-01-30 22:33:00,
2014-01-30 15:34:00,42.1,28.0,29.48,SW,226,6.0,10.0,57,0.00,,---,0.00,VWS V14.01,2014-01-30 22:34:00,
2014-01-30 15:35:00,42.0,27.9,29.48,SSW,211,4.0,10.0,57,0.00,,---,0.00,VWS V14.01,2014-01-30 22:35:00,
2014-01-30 15:36:00,42.0,27.9,29.48,SSW,207,6.0,6.0,57,0.00,,---,0.00,VWS V14.01,2014-01-30 22:36:00,
2014-01-30 15:37:00,42.0,27.9,29.48,SSW,208,0.0,6.0,57,0.00,,---,0.00,VWS V14.01,2014-01-30 22:37:00,
2014-01-30 15:38:00,42.0,27.9,29.48,South,179,1.0,6.0,57,0.00,,---,0.00,VWS V14.01,2014-01-30 22:38:00,
2014-01-30 15:39:00,42.0,27.9,29.48,SSW,195,6.0,9.0,57,0.00,,---,0.00,VWS V14.01,2014-01-30 22:39:00,
2014-01-30 15:40:00,42.0,27.9,29.48,SW,223,9.0,9.0,57,0.00,,---,0.00,VWS V14.01,2014-01-30 22:40:00,
2014-01-30 15:41:00,42.0,27.9,29.49,SW,222,4.0,8.0,57,0.00,,---,0.00,VWS V14.01,2014-01-30 22:41:00,
2014-01-30 15:42:00,42.0,27.9,29.48,SSW,198,4.0,8.0,57,0.00,,---,0.00,VWS V14.01,2014-01-30 22:42:00,
2014-01-30 15:43:00,41.9,27.8,29.48,SSW,196,3.0,9.0,57,0.00,,---,0.00,VWS V14.01,2014-01-30 22:43:00,
2014-01-30 15:44:00,41.9,27.8,29.48,SW,233,7.0,13.0,57,0.00,,---,0.00,VWS V14.01,2014-01-30 22:44:00,
2014-01-30 15:45:00,41.8,27.7,29.48,West,267,13.0,13.0,57,0.00,,---,0.00,VWS V14.01,2014-01-30 22:45:00,
2014-01-30 15:46:00,41.8,27.7,29.48,SW,236,12.0,16.0,57,0.00,,---,0.00,VWS V14.01,2014-01-30 22:46:00,
2014-01-30 15:47:00,41.8,27.7,29.48,SW,223,10.0,16.0,57,0.00,,---,0.00,VWS V14.01,2014-01-30 22:47:00,
2014-01-30 15:48:00,41.7,27.6,29.48,SSW,194,10.0,16.0,57,0.00,,---,0.00,VWS V14.01,2014-01-30 22:48:00,
2014-01-30 15:49:00,41.6,27.5,29.49,SW,221,11.0,18.0,57,0.00,,---,0.00,VWS V14.01,2014-01-30 22:49:00,
2014-01-30 15:50:00,41.6,27.5,29.49,SSW,205,5.0,18.0,57,0.00,,---,0.00,VWS V14.01,2014-01-30 22:50:00,
2014-01-30 15:51:00,41.6,27.5,29.49,SSW,202,3.0,9.0,57,0.00,,---,0.00,VWS V14.01,2014-01-30 22:51:00,
2014-01-30 15:52:00,41.6,27.5,29.49,WSW,250,6.0,9.0,57,0.00,,---,0.00,VWS V14.01,2014-01-30 22:52:00,
2014-01-30 15:53:00,41.6,27.5,29.49,SW,230,3.0,9.0,57,0.00,,---,0.00,VWS V14.01,2014-01-30 22:53:00,
2014-01-30 15:54:00,41.5,27.8,29.49,SSW,205,1.0,9.0,58,0.00,,---,0.00,VWS V14.01,2014-01-30 22:54:00,
2014-01-30 15:55:00,41.5,27.8,29.48,South,188,4.0,9.0,58,0.00,,---,0.00,VWS V14.01,2014-01-30 22:55:00,
2014-01-30 15:56:00,41.4,27.8,29.48,SW,234,1.0,4.0,58,0.00,,---,0.00,VWS V14.01,2014-01-30 22:56:00,
2014-01-30 15:57:00,41.4,27.8,29.49,SSW,204,4.0,10.0,58,0.00,,---,0.00,VWS V14.01,2014-01-30 22:57:00,
2014-01-30 15:58:00,41.4,27.8,29.49,South,184,5.0,10.0,58,0.00,,---,0.00,VWS V14.01,2014-01-30 22:58:00,
2014-01-30 15:59:00,41.3,27.6,29.49,SSW,206,4.0,10.0,58,0.00,,---,0.00,VWS V14.01,2014-01-30 22:59:00,
2014-01-30 16:00:00,41.3,27.6,29.48,SSW,194,0.0,10.0,58,0.00,,---,0.00,VWS V14.01,2014-01-30 23:00:00,
2014-01-30 16:01:00,41.3,27.6,29.50,SSW,204,6.0,13.0,58,0.00,,---,0.00,VWS V14.01,2014-01-30 23:01:00,
2014-01-30 16:02:00,41.3,27.6,29.50,SW,226,4.0,13.0,58,0.00,,---,0.00,VWS V14.01,2014-01-30 23:02:00,
2014-01-30 16:03:00,41.3,28.1,29.50,SW,218,4.0,13.0,59,0.00,,---,0.00,VWS V14.01,2014-01-30 23:03:00,
2014-01-30 16:04:00,41.2,28.0,29.50,SSW,196,7.0,13.0,59,0.00,,---,0.00,VWS V14.01,2014-01-30 23:04:00,
2014-01-30 16:05:00,41.2,28.0,29.50,South,175,2.0,13.0,59,0.00,,---,0.00,VWS V14.01,2014-01-30 23:05:00,
2014-01-30 16:06:00,41.1,27.9,29.50,SSW,199,5.0,5.0,59,0.00,,---,0.00,VWS V14.01,2014-01-30 23:06:00,
2014-01-30 16:07:00,41.1,27.9,29.50,SW,223,4.0,5.0,59,0.00,,---,0.00,VWS V14.01,2014-01-30 23:07:00,
2014-01-30 16:08:00,41.1,27.9,29.50,South,180,4.0,9.0,59,0.00,,---,0.00,VWS V14.01,2014-01-30 23:08:00,
2014-01-30 16:09:00,41.1,27.9,29.50,SSW,211,1.0,9.0,59,0.00,,---,0.00,VWS V14.01,2014-01-30 23:09:00,
2014-01-30 16:10:00,41.1,27.9,29.50,WSW,254,5.0,9.0,59,0.00,,---,0.00,VWS V14.01,2014-01-30 23:10:00,
2014-01-30 16:11:00,41.1,27.5,29.50,SSW,194,1.0,9.0,58,0.00,,---,0.00,VWS V14.01,2014-01-30 23:11:00,
2014-01-30 16:12:00,41.2,27.6,29.50,SSW,211,2.0,9.0,58,0.00,,---,0.00,VWS V14.01,2014-01-30 23:12:00,
2014-01-30 16:13:00,41.2,27.6,29.50,WSW,252,4.0,9.0,58,0.00,,---,0.00,VWS V14.01,2014-01-30 23:13:00,
2014-01-30 16:14:00,41.3,27.6,29.50,SW,229,7.0,9.0,58,0.00,,---,0.00,VWS V14.01,2014-01-30 23:14:00,
2014-01-30 16:15:00,41.3,27.6,29.49,SSW,203,5.0,9.0,58,0.00,,---,0.00,VWS V14.01,2014-01-30 23:15:00,
2014-01-30 16:16:00,41.4,27.8,29.50,SSW,203,2.0,6.0,58,0.00,,---,0.00,VWS V14.01,2014-01-30 23:16:00,
2014-01-30 16:17:00,41.4,27.8,29.50,South,171,6.0,7.0,58,0.00,,---,0.00,VWS V14.01,2014-01-30 23:17:00,
2014-01-30 16:18:00,41.4,27.3,29.50,SSW,202,6.0,11.0,57,0.00,,---,0.00,VWS V14.01,2014-01-30 23:18:00,
2014-01-30 16:19:00,41.5,27.4,29.50,SW,227,5.0,11.0,57,0.00,,---,0.00,VWS V14.01,2014-01-30 23:19:00,
2014-01-30 16:20:00,41.4,27.3,29.48,SSW,209,5.0,11.0,57,0.00,,---,0.00,VWS V14.01,2014-01-30 23:20:00,
2014-01-30 16:21:00,41.5,27.4,29.50,SSW,207,5.0,10.0,57,0.00,,---,0.00,VWS V14.01,2014-01-30 23:21:00,
2014-01-30 16:22:00,41.5,27.4,29.48,SW,214,10.0,15.0,57,0.00,,---,0.00,VWS V14.01,2014-01-30 23:22:00,
2014-01-30 16:23:00,41.4,27.3,29.48,West,264,12.0,15.0,57,0.00,,---,0.00,VWS V14.01,2014-01-30 23:23:00,
2014-01-30 16:24:00,41.3,27.2,29.49,SSW,209,4.0,15.0,57,0.00,,---,0.00,VWS V14.01,2014-01-30 23:24:00,
2014-01-30 16:25:00,41.3,27.2,29.50,SW,214,10.0,15.0,57,0.00,,---,0.00,VWS V14.01,2014-01-30 23:25:00,
2014-01-30 16:26:00,41.3,27.2,29.50,West,259,10.0,13.0,57,0.00,,---,0.00,VWS V14.01,2014-01-30 23:26:00,
2014-01-30 16:27:00,41.2,27.1,29.50,SW,234,8.0,13.0,57,0.00,,---,0.00,VWS V14.01,2014-01-30 23:27:00,
2014-01-30 16:28:00,41.2,27.6,29.50,WSW,237,5.0,13.0,58,0.00,,---,0.00,VWS V14.01,2014-01-30 23:28:00,
2014-01-30 16:29:00,41.1,27.5,29.50,SSW,207,3.0,13.0,58,0.00,,---,0.00,VWS V14.01,2014-01-30 23:29:00,
2014-01-30 16:30:00,41.1,27.5,29.50,South,188,3.0,13.0,58,0.00,,---,0.00,VWS V14.01,2014-01-30 23:30:00,
2014-01-30 16:31:00,41.1,27.5,29.50,SW,226,2.0,8.0,58,0.00,,---,0.00,VWS V14.01,2014-01-30 23:31:00,
2014-01-30 16:32:00,41.0,27.4,29.50,WSW,238,5.0,12.0,58,0.00,,---,0.00,VWS V14.01,2014-01-30 23:32:00,
2014-01-30 16:33:00,41.0,27.4,29.50,SW,234,10.0,12.0,58,0.00,,---,0.00,VWS V14.01,2014-01-30 23:33:00,
2014-01-30 16:34:00,41.0,27.4,29.50,SW,236,8.0,12.0,58,0.00,,---,0.00,VWS V14.01,2014-01-30 23:34:00,
2014-01-30 16:35:00,41.0,27.8,29.50,SW,223,6.0,12.0,59,0.00,,---,0.00,VWS V14.01,2014-01-30 23:35:00,
2014-01-30 16:36:00,40.9,27.7,29.50,SSW,202,10.0,12.0,59,0.00,,---,0.00,VWS V14.01,2014-01-30 23:36:00,
2014-01-30 16:37:00,40.9,27.7,29.50,WSW,252,10.0,12.0,59,0.00,,---,0.00,VWS V14.01,2014-01-30 23:37:00,
2014-01-30 16:38:00,40.9,27.3,29.50,SW,225,7.0,12.0,58,0.00,,---,0.00,VWS V14.01,2014-01-30 23:38:00,
2014-01-30 16:39:00,40.9,27.7,29.50,WSW,241,7.0,12.0,59,0.00,,---,0.00,VWS V14.01,2014-01-30 23:39:00,
2014-01-30 16:40:00,40.8,27.6,29.50,West,267,7.0,12.0,59,0.00,,---,0.00,VWS V14.01,2014-01-30 23:40:00,
2014-01-30 16:41:00,40.8,27.6,29.50,SW,221,10.0,12.0,59,0.00,,---,0.00,VWS V14.01,2014-01-30 23:41:00,
2014-01-30 16:42:00,40.7,27.5,29.50,SW,234,13.0,13.0,59,0.00,,---,0.00,VWS V14.01,2014-01-30 23:42:00,
2014-01-30 16:43:00,40.7,27.5,29.50,SSW,207,3.0,13.0,59,0.00,,---,0.00,VWS V14.01,2014-01-30 23:43:00,
2014-01-30 16:44:00,40.7,27.5,29.50,WSW,243,12.0,13.0,59,0.00,,---,0.00,VWS V14.01,2014-01-30 23:44:00,
2014-01-30 16:45:00,40.8,27.2,29.50,SSW,207,10.0,13.0,58,0.00,,---,0.00,VWS V14.01,2014-01-30 23:45:00,
2014-01-30 16:46:00,40.9,27.3,29.50,SSW,206,9.0,11.0,58,0.00,,---,0.00,VWS V14.01,2014-01-30 23:46:00,
2014-01-30 16:47:00,40.9,27.3,29.50,South,188,9.0,11.0,58,0.00,,---,0.00,VWS V14.01,2014-01-30 23:47:00,
2014-01-30 16:48:00,40.9,27.3,29.50,SW,214,7.0,11.0,58,0.00,,---,0.00,VWS V14.01,2014-01-30 23:48:00,
2014-01-30 16:49:00,40.9,27.7,29.50,WSW,238,6.0,11.0,59,0.00,,---,0.00,VWS V14.01,2014-01-30 23:49:00,
2014-01-30 16:50:00,40.9,27.7,29.50,SW,230,8.0,11.0,59,0.00,,---,0.00,VWS V14.01,2014-01-30 23:50:00,
2014-01-30 16:51:00,40.8,27.6,29.50,South,180,4.0,8.0,59,0.00,,---,0.00,VWS V14.01,2014-01-30 23:51:00,
2014-01-30 16:52:00,40.7,27.5,29.50,SW,225,5.0,10.0,59,0.00,,---,0.00,VWS V14.01,2014-01-30 23:52:00,
2014-01-30 16:53:00,40.6,27.4,29.50,SSW,206,5.0,11.0,59,0.00,,---,0.00,VWS V14.01,2014-01-30 23:53:00,
2014-01-30 16:54:00,40.6,27.4,29.50,West,266,15.0,16.0,59,0.00,,---,0.00,VWS V14.01,2014-01-30 23:54:00,
2014-01-30 16:55:00,40.6,27.4,29.50,SSW,206,5.0,16.0,59,0.00,,---,0.00,VWS V14.01,2014-01-30 23:55:00,
2014-01-30 16:56:00,40.5,27.7,29.50,WSW,244,5.0,11.0,60,0.00,,---,0.00,VWS V14.01,2014-01-30 23:56:00,
2014-01-30 16:57:00,40.5,27.7,29.50,WSW,249,7.0,12.0,60,0.00,,---,0.00,VWS V14.01,2014-01-30 23:57:00,
2014-01-30 16:58:00,40.4,27.6,29.49,SSW,198,14.0,14.0,60,0.00,,---,0.00,VWS V14.01,2014-01-30 23:58:00,
2014-01-30 16:59:00,40.4,27.2,29.49,SSW,193,8.0,14.0,59,0.00,,---,0.00,VWS V14.01,2014-01-30 23:59:00,
2014-01-30 17:00:00,40.4,27.6,29.49,SW,227,4.0,14.0,60,0.00,,---,0.00,VWS V14.01,2014-01-31 00:00:00,
2014-01-30 17:01:00,40.4,27.6,29.49,SSW,205,18.0,18.0,60,0.00,,---,0.00,VWS V14.01,2014-01-31 00:01:00,
2014-01-30 17:02:00,40.4,27.6,29.49,SSW,192,6.0,18.0,60,0.00,,---,0.00,VWS V14.01,2014-01-31 00:02:00,
2014-01-30 17:03:00,40.4,27.6,29.49,South,184,6.0,18.0,60,0.00,,---,0.00,VWS V14.01,2014-01-31 00:03:00,
2014-01-30 17:04:00,40.4,27.2,29.49,WSW,244,8.0,18.0,59,0.00,,---,0.00,VWS V14.01,2014-01-31 00:04:00,
2014-01-30 17:05:00,40.5,27.3,29.49,SW,227,12.0,22.0,59,0.00,,---,0.00,VWS V14.01,2014-01-31 00:05:00,
2014-01-30 17:06:00,40.6,27.4,29.49,WSW,257,12.0,15.0,59,0.00,,---,0.00,VWS V14.01,2014-01-31 00:06:00,
2014-01-30 17:07:00,40.6,27.4,29.49,SW,225,7.0,16.0,59,0.00,,---,0.00,VWS V14.01,2014-01-31 00:07:00,
2014-01-30 17:08:00,40.7,27.1,29.49,SSW,199,21.0,23.0,58,0.00,,---,0.00,VWS V14.01,2014-01-31 00:08:00,
2014-01-30 17:09:00,40.9,27.3,29.49,SSW,213,13.0,23.0,58,0.00,,---,0.00,VWS V14.01,2014-01-31 00:09:00,
2014-01-30 17:10:00,41.0,27.4,29.49,WSW,252,7.0,23.0,58,0.00,,---,0.00,VWS V14.01,2014-01-31 00:10:00,
2014-01-30 17:11:00,41.1,27.0,29.49,West,262,20.0,22.0,57,0.00,,---,0.00,VWS V14.01,2014-01-31 00:11:00,
2014-01-30 17:12:00,41.1,27.0,29.49,SW,234,10.0,22.0,57,0.00,,---,0.00,VWS V14.01,2014-01-31 00:12:00,
2014-01-30 17:13:00,41.1,27.0,29.49,WSW,254,14.0,22.0,57,0.00,,---,0.00,VWS V14.01,2014-01-31 00:13:00,
2014-01-30 17:14:00,41.0,27.4,29.49,WSW,237,8.0,22.0,58,0.00,,---,0.00,VWS V14.01,2014-01-31 00:14:00,
2014-01-30 17:15:00,41.0,27.4,29.49,SW,230,11.0,22.0,58,0.00,,---,0.00,VWS V14.01,2014-01-31 00:15:00,
2014-01-30 17:16:00,40.9,27.3,29.49,West,269,14.0,18.0,58,0.00,,---,0.00,VWS V14.01,2014-01-31 00:16:00,
2014-01-30 17:17:00,40.8,27.2,29.49,West,261,16.0,19.0,58,0.00,,---,0.00,VWS V14.01,2014-01-31 00:17:00,
2014-01-30 17:18:00,40.7,27.5,29.49,SW,229,11.0,19.0,59,0.00,,---,0.00,VWS V14.01,2014-01-31 00:18:00,
2014-01-30 17:19:00,40.7,27.1,29.49,WNW,293,8.0,19.0,58,0.00,,---,0.00,VWS V14.01,2014-01-31 00:19:00,
2014-01-30 17:20:00,40.3,27.9,29.50,West,277,9.0,19.0,61,0.00,,---,0.00,VWS V14.01,2014-01-31 00:20:00,
2014-01-30 17:21:00,39.4,27.9,29.49,West,265,5.0,10.0,63,0.00,,---,0.00,VWS V14.01,2014-01-31 00:21:00,
2014-01-30 17:22:00,38.7,28.0,29.51,SW,236,1.0,10.0,65,0.00,,---,0.00,VWS V14.01,2014-01-31 00:22:00,
2014-01-30 17:23:00,38.1,27.8,29.51,West,263,9.0,12.0,66,0.00,,---,0.00,VWS V14.01,2014-01-31 00:23:00,
2014-01-30 17:24:00,37.9,27.6,29.51,WNW,289,9.0,13.0,66,0.00,,---,0.00,VWS V14.01,2014-01-31 00:24:00,
2014-01-30 17:25:00,37.4,27.5,29.51,West,278,7.0,13.0,67,0.00,,---,0.00,VWS V14.01,2014-01-31 00:25:00,
2014-01-30 17:26:00,36.8,28.0,29.52,West,275,6.0,9.0,70,0.00,,---,0.00,VWS V14.01,2014-01-31 00:26:00,
2014-01-30 17:27:00,36.1,27.3,29.53,West,279,7.0,11.0,70,0.00,,---,0.00,VWS V14.01,2014-01-31 00:27:00,
2014-01-30 17:28:00,35.8,27.3,29.53,West,279,9.0,11.0,71,0.00,,---,0.00,VWS V14.01,2014-01-31 00:28:00,
2014-01-30 17:29:00,35.4,27.3,29.53,West,279,4.0,11.0,72,0.00,,---,0.00,VWS V14.01,2014-01-31 00:29:00,
2014-01-30 17:30:00,35.1,27.3,29.54,West,276,3.0,11.0,73,0.00,,---,0.00,VWS V14.01,2014-01-31 00:30:00,
2014-01-30 17:31:00,34.8,27.7,29.55,WNW,299,5.0,8.0,75,0.00,,---,0.00,VWS V14.01,2014-01-31 00:31:00,
2014-01-30 17:32:00,34.5,27.4,29.55,WNW,299,8.0,8.0,75,0.00,,---,0.00,VWS V14.01,2014-01-31 00:32:00,
2014-01-30 17:33:00,34.4,27.3,29.55,NNW,327,6.0,9.0,75,0.00,,---,0.00,VWS V14.01,2014-01-31 00:33:00,
2014-01-30 17:34:00,34.4,27.6,29.54,NW,325,1.0,9.0,76,0.00,,---,0.00,VWS V14.01,2014-01-31 00:34:00,
2014-01-30 17:35:00,34.4,28.0,29.54,NW,325,1.0,9.0,77,0.00,,---,0.00,VWS V14.01,2014-01-31 00:35:00,
2014-01-30 17:36:00,34.4,28.0,29.54,NW,325,0.0,2.0,77,0.00,,---,0.00,VWS V14.01,2014-01-31 00:36:00,
2014-01-30 17:37:00,34.3,27.9,29.54,SW,225,0.0,4.0,77,0.00,,---,0.00,VWS V14.01,2014-01-31 00:37:00,
2014-01-30 17:38:00,34.2,28.1,29.54,WSW,240,1.0,5.0,78,0.00,,---,0.00,VWS V14.01,2014-01-31 00:38:00,
2014-01-30 17:39:00,34.2,28.1,29.54,West,277,5.0,7.0,78,0.00,,---,0.00,VWS V14.01,2014-01-31 00:39:00,
2014-01-30 17:40:00,34.1,28.0,29.54,West,277,4.0,7.0,78,0.00,,---,0.00,VWS V14.01,2014-01-31 00:40:00,
2014-01-30 17:41:00,34.1,28.0,29.54,WNW,300,1.0,7.0,78,0.00,,---,0.00,VWS V14.01,2014-01-31 00:41:00,
2014-01-30 17:42:00,34.0,27.9,29.54,WNW,299,8.0,9.0,78,0.00,,---,0.00,VWS V14.01,2014-01-31 00:42:00,
2014-01-30 17:43:00,34.1,28.0,29.54,NW,315,4.0,9.0,78,0.00,,---,0.00,VWS V14.01,2014-01-31 00:43:00,
2014-01-30 17:44:00,34.2,28.1,29.54,NW,323,12.0,12.0,78,0.00,,---,0.00,VWS V14.01,2014-01-31 00:44:00,
2014-01-30 17:45:00,34.1,28.0,29.54,NW,315,7.0,12.0,78,0.00,,---,0.00,VWS V14.01,2014-01-31 00:45:00,
2014-01-30 17:46:00,34.1,28.0,29.54,NW,311,7.0,9.0,78,0.00,,---,0.00,VWS V14.01,2014-01-31 00:46:00,
2014-01-30 17:47:00,34.0,27.9,29.54,NW,322,9.0,12.0,78,0.00,,---,0.00,VWS V14.01,2014-01-31 00:47:00,
2014-01-30 17:48:00,33.8,27.7,29.55,NW,312,6.0,13.0,78,0.00,,---,0.00,VWS V14.01,2014-01-31 00:48:00,
2014-01-30 17:49:00,33.6,27.8,29.54,NW,318,6.0,13.0,79,0.00,,---,0.00,VWS V14.01,2014-01-31 00:49:00,
2014-01-30 17:50:00,33.5,27.7,29.54,NW,318,6.0,13.0,79,0.00,,---,0.00,VWS V14.01,2014-01-31 00:50:00,
2014-01-30 17:51:00,33.4,27.6,29.54,NW,323,11.0,11.0,79,0.00,,---,0.00,VWS V14.01,2014-01-31 00:51:00,
2014-01-30 17:52:00,33.4,27.6,29.56,NNW,329,8.0,11.0,79,0.00,,---,0.00,VWS V14.01,2014-01-31 00:52:00,
2014-01-30 17:53:00,33.4,27.6,29.56,NNW,337,6.0,11.0,79,0.00,,---,0.00,VWS V14.01,2014-01-31 00:53:00,
2014-01-30 17:54:00,33.3,27.5,29.56,NNW,336,1.0,11.0,79,0.00,,---,0.00,VWS V14.01,2014-01-31 00:54:00,
2014-01-30 17:55:00,33.2,27.4,29.57,NNW,336,0.0,11.0,79,0.00,,---,0.00,VWS V14.01,2014-01-31 00:55:00,
2014-01-30 17:56:00,33.2,27.7,29.56,West,280,5.0,7.0,80,0.00,,---,0.00,VWS V14.01,2014-01-31 00:56:00,
2014-01-30 17:57:00,33.1,27.6,29.56,West,281,2.0,7.0,80,0.00,,---,0.00,VWS V14.01,2014-01-31 00:57:00,
2014-01-30 17:58:00,33.0,27.5,29.56,NNW,336,2.0,7.0,80,0.00,,---,0.00,VWS V14.01,2014-01-31 00:58:00,
2014-01-30 17:59:00,33.0,27.5,29.55,NNW,336,3.0,8.0,80,0.00,,---,0.00,VWS V14.01,2014-01-31 00:59:00,
2014-01-30 18:00:00,32.9,27.4,29.56,NW,326,10.0,10.0,80,0.00,,---,0.00,VWS V14.01,2014-01-31 01:00:00,
2014-01-30 18:01:00,32.8,27.3,29.55,NW,325,0.0,10.0,80,0.00,,---,0.00,VWS V14.01,2014-01-31 01:01:00,
2014-01-30 18:02:00,32.8,27.6,29.56,NW,325,9.0,10.0,81,0.00,,---,0.00,VWS V14.01,2014-01-31 01:02:00,
2014-01-30 18:03:00,32.6,27.4,29.56,NW,322,7.0,10.0,81,0.00,,---,0.00,VWS V14.01,2014-01-31 01:03:00,
2014-01-30 18:04:00,32.6,27.4,29.56,NW,324,5.0,10.0,81,0.00,,---,0.00,VWS V14.01,2014-01-31 01:04:00,
2014-01-30 18:05:00,32.5,27.3,29.56,NW,322,9.0,10.0,81,0.00,,---,0.00,VWS V14.01,2014-01-31 01:05:00,
2014-01-30 18:06:00,32.4,27.2,29.56,NW,323,8.0,11.0,81,0.00,,---,0.00,VWS V14.01,2014-01-31 01:06:00,
2014-01-30 18:07:00,32.3,27.1,29.56,NW,321,7.0,11.0,81,0.00,,---,0.00,VWS V14.01,2014-01-31 01:07:00,
2014-01-30 18:08:00,32.2,27.0,29.56,NW,319,6.0,11.0,81,0.00,,---,0.00,VWS V14.01,2014-01-31 01:08:00,
2014-01-30 18:09:00,32.2,27.0,29.56,WNW,286,4.0,11.0,81,0.00,,---,0.00,VWS V14.01,2014-01-31 01:09:00,
2014-01-30 18:10:00,32.2,27.3,29.57,West,267,1.0,11.0,82,0.00,,---,0.00,VWS V14.01,2014-01-31 01:10:00,
2014-01-30 18:11:00,32.1,27.2,29.57,West,273,5.0,5.0,82,0.00,,---,0.00,VWS V14.01,2014-01-31 01:11:00,
2014-01-30 18:12:00,32.1,27.2,29.57,West,276,3.0,5.0,82,0.00,,---,0.00,VWS V14.01,2014-01-31 01:12:00,
2014-01-30 18:13:00,32.1,27.2,29.57,West,279,3.0,6.0,82,0.00,,---,0.00,VWS V14.01,2014-01-31 01:13:00,
2014-01-30 18:14:00,32.1,27.2,29.57,West,279,1.0,6.0,82,0.00,,---,0.00,VWS V14.01,2014-01-31 01:14:00,
2014-01-30 18:15:00,32.0,27.1,29.57,West,280,4.0,6.0,82,0.00,,---,0.00,VWS V14.01,2014-01-31 01:15:00,
2014-01-30 18:16:00,32.0,27.1,29.57,West,280,5.0,5.0,82,0.00,,---,0.00,VWS V14.01,2014-01-31 01:16:00,
2014-01-30 18:17:00,32.0,27.1,29.57,West,279,5.0,7.0,82,0.00,,---,0.00,VWS V14.01,2014-01-31 01:17:00,
2014-01-30 18:18:00,32.0,27.1,29.57,WNW,284,7.0,8.0,82,0.00,,---,0.00,VWS V14.01,2014-01-31 01:18:00,
2014-01-30 18:19:00,31.9,27.0,29.57,WNW,285,2.0,8.0,82,0.00,,---,0.00,VWS V14.01,2014-01-31 01:19:00,
2014-01-30 18:20:00,31.9,27.0,29.57,WNW,285,2.0,8.0,82,0.00,,---,0.00,VWS V14.01,2014-01-31 01:20:00,
2014-01-30 18:21:00,31.9,27.0,29.57,WNW,284,4.0,6.0,82,0.00,,---,0.00,VWS V14.01,2014-01-31 01:21:00,
2014-01-30 18:22:00,31.8,26.9,29.57,WNW,284,4.0,6.0,82,0.00,,---,0.00,VWS V14.01,2014-01-31 01:22:00,
2014-01-30 18:23:00,31.8,26.9,29.57,WNW,284,0.0,6.0,82,0.00,,---,0.00,VWS V14.01,2014-01-31 01:23:00,
2014-01-30 18:24:00,31.8,27.2,29.57,WNW,292,9.0,9.0,83,0.00,,---,0.00,VWS V14.01,2014-01-31 01:24:00,
2014-01-30 18:25:00,31.7,27.1,29.57,WNW,295,7.0,9.0,83,0.00,,---,0.00,VWS V14.01,2014-01-31 01:25:00,
2014-01-30 18:26:00,31.7,27.1,29.57,NW,309,5.0,9.0,83,0.00,,---,0.00,VWS V14.01,2014-01-31 01:26:00,
2014-01-30 18:27:00,31.6,27.0,29.57,NW,308,3.0,9.0,83,0.00,,---,0.00,VWS V14.01,2014-01-31 01:27:00,
2014-01-30 18:28:00,31.6,27.0,29.57,NW,308,2.0,9.0,83,0.00,,---,0.00,VWS V14.01,2014-01-31 01:28:00,
2014-01-30 18:29:00,31.6,27.0,29.57,NW,308,2.0,9.0,83,0.00,,---,0.00,VWS V14.01,2014-01-31 01:29:00,
2014-01-30 18:30:00,31.6,27.0,29.57,NW,309,6.0,9.0,83,0.00,,---,0.00,VWS V14.01,2014-01-31 01:30:00,
2014-01-30 18:31:00,31.6,27.0,29.56,NW,309,5.0,7.0,83,0.00,,---,0.00,VWS V14.01,2014-01-31 01:31:00,
2014-01-30 18:32:00,31.6,27.0,29.56,NW,309,6.0,7.0,83,0.00,,---,0.00,VWS V14.01,2014-01-31 01:32:00,
2014-01-30 18:33:00,31.6,27.0,29.57,NW,309,0.0,7.0,83,0.00,,---,0.00,VWS V14.01,2014-01-31 01:33:00,
2014-01-30 18:34:00,31.6,27.0,29.56,NW,309,0.0,7.0,83,0.00,,---,0.00,VWS V14.01,2014-01-31 01:34:00,
2014-01-30 18:35:00,31.6,27.0,29.56,NW,309,0.0,7.0,83,0.00,,---,0.00,VWS V14.01,2014-01-31 01:35:00,
2014-01-30 18:36:00,31.6,27.0,29.56,NNW,344,0.0,2.0,83,0.00,,---,0.00,VWS V14.01,2014-01-31 01:36:00,
2014-01-30 18:37:00,31.6,27.0,29.56,NNW,344,0.0,2.0,83,0.00,,---,0.00,VWS V14.01,2014-01-31 01:37:00,
2014-01-30 18:38:00,31.6,27.0,29.56,NNW,344,0.0,2.0,83,0.00,,---,0.00,VWS V14.01,2014-01-31 01:38:00,
2014-01-30 18:39:00,31.7,27.1,29.57,NNW,344,4.0,4.0,83,0.00,,---,0.00,VWS V14.01,2014-01-31 01:39:00,
2014-01-30 18:40:00,31.7,27.1,29.57,NNW,340,0.0,5.0,83,0.00,,---,0.00,VWS V14.01,2014-01-31 01:40:00,
2014-01-30 18:41:00,31.7,27.1,29.57,NNW,345,2.0,2.0,83,0.00,,---,0.00,VWS V14.01,2014-01-31 01:41:00,
2014-01-30 18:42:00,31.7,27.1,29.56,NNW,345,2.0,4.0,83,0.00,,---,0.00,VWS V14.01,2014-01-31 01:42:00,
2014-01-30 18:43:00,31.7,27.1,29.56,NNW,345,0.0,4.0,83,0.00,,---,0.00,VWS V14.01,2014-01-31 01:43:00,
2014-01-30 18:44:00,31.7,27.1,29.56,NNW,345,0.0,4.0,83,0.00,,---,0.00,VWS V14.01,2014-01-31 01:44:00,
2014-01-30 18:45:00,31.7,27.1,29.56,North,10,5.0,5.0,83,0.00,,---,0.00,VWS V14.01,2014-01-31 01:45:00,
2014-01-30 18:46:00,31.7,27.1,29.56,North,11,0.0,5.0,83,0.00,,---,0.00,VWS V14.01,2014-01-31 01:46:00,
2014-01-30 18:47:00,31.7,27.1,29.57,NNW,342,2.0,5.0,83,0.00,,---,0.00,VWS V14.01,2014-01-31 01:47:00,
2014-01-30 18:48:00,31.7,27.1,29.57,NNW,342,0.0,5.0,83,0.00,,---,0.00,VWS V14.01,2014-01-31 01:48:00,
2014-01-30 18:49:00,31.7,27.1,29.57,NNW,343,0.0,5.0,83,0.00,,---,0.00,VWS V14.01,2014-01-31 01:49:00,
2014-01-30 18:50:00,31.7,27.1,29.57,NNW,342,0.0,5.0,83,0.00,,---,0.00,VWS V14.01,2014-01-31 01:50:00,
2014-01-30 18:51:00,31.7,27.1,29.57,NNW,342,0.0,0.0,83,0.00,,---,0.00,VWS V14.01,2014-01-31 01:51:00,
2014-01-30 18:52:00,31.7,27.1,29.57,NNW,342,0.0,0.0,83,0.00,,---,0.00,VWS V14.01,2014-01-31 01:52:00,
2014-01-30 18:53:00,31.7,27.1,29.57,NNW,342,2.0,2.0,83,0.00,,---,0.00,VWS V14.01,2014-01-31 01:53:00,
2014-01-30 18:54:00,31.7,27.1,29.56,NNW,336,7.0,7.0,83,0.00,,---,0.00,VWS V14.01,2014-01-31 01:54:00,
2014-01-30 18:55:00,31.6,27.0,29.56,NNW,333,6.0,8.0,83,0.00,,---,0.00,VWS V14.01,2014-01-31 01:55:00,
2014-01-30 18:56:00,31.6,27.0,29.56,NNW,333,1.0,6.0,83,0.00,,---,0.00,VWS V14.01,2014-01-31 01:56:00,
2014-01-30 18:57:00,31.6,27.0,29.56,NNW,333,0.0,6.0,83,0.00,,---,0.00,VWS V14.01,2014-01-31 01:57:00,
2014-01-30 18:58:00,31.5,27.2,29.56,NNW,333,0.0,6.0,84,0.00,,---,0.00,VWS V14.01,2014-01-31 01:58:00,
2014-01-30 18:59:00,31.5,27.2,29.56,NNW,333,0.0,6.0,84,0.00,,---,0.00,VWS V14.01,2014-01-31 01:59:00,
2014-01-30 19:00:00,31.5,27.2,29.56,NNW,333,6.0,6.0,84,0.00,,---,0.00,VWS V14.01,2014-01-31 02:00:00,
2014-01-30 19:01:00,31.5,26.9,29.56,NNW,331,5.0,6.0,83,0.00,,---,0.00,VWS V14.01,2014-01-31 02:01:00,
2014-01-30 19:02:00,31.4,26.8,29.56,NNW,327,7.0,8.0,83,0.00,,---,0.00,VWS V14.01,2014-01-31 02:02:00,
2014-01-30 19:03:00,31.4,26.8,29.56,NNW,327,2.0,8.0,83,0.00,,---,0.00,VWS V14.01,2014-01-31 02:03:00,
2014-01-30 19:04:00,31.3,26.8,29.55,NW,326,1.0,8.0,83,0.00,,---,0.00,VWS V14.01,2014-01-31 02:04:00,
2014-01-30 19:05:00,31.3,27.0,29.55,NW,326,5.0,8.0,84,0.00,,---,0.00,VWS V14.01,2014-01-31 02:05:00,
2014-01-30 19:06:00,31.3,27.0,29.55,NW,326,1.0,5.0,84,0.00,,---,0.00,VWS V14.01,2014-01-31 02:06:00,
2014-01-30 19:07:00,31.2,26.9,29.56,NNW,327,5.0,6.0,84,0.00,,---,0.00,VWS V14.01,2014-01-31 02:07:00,
2014-01-30 19:08:00,31.2,26.9,29.56,NNW,327,2.0,8.0,84,0.00,,---,0.00,VWS V14.01,2014-01-31 02:08:00,
2014-01-30 19:09:00,31.2,26.9,29.56,NNW,327,2.0,8.0,84,0.00,,---,0.00,VWS V14.01,2014-01-31 02:09:00,
2014-01-30 19:10:00,31.2,26.9,29.56,NNW,327,2.0,8.0,84,0.00,,---,0.00,VWS V14.01,2014-01-31 02:10:00,
2014-01-30 19:11:00,31.1,26.8,29.55,NNW,327,4.0,8.0,84,0.00,,---,0.00,VWS V14.01,2014-01-31 02:11:00,
2014-01-30 19:12:00,31.1,26.8,29.55,NW,326,4.0,8.0,84,0.00,,---,0.00,VWS V14.01,2014-01-31 02:12:00,
2014-01-30 19:13:00,31.1,26.8,29.55,NW,326,1.0,8.0,84,0.00,,---,0.00,VWS V14.01,2014-01-31 02:13:00,
2014-01-30 19:14:00,31.1,26.8,29.56,NW,325,0.0,8.0,84,0.00,,---,0.00,VWS V14.01,2014-01-31 02:14:00,
2014-01-30 19:15:00,31.1,26.8,29.56,NW,325,0.0,8.0,84,0.00,,---,0.00,VWS V14.01,2014-01-31 02:15:00,
2014-01-30 19:16:00,31.1,26.8,29.55,NW,325,4.0,4.0,84,0.00,,---,0.00,VWS V14.01,2014-01-31 02:16:00,
2014-01-30 19:17:00,31.1,26.8,29.55,NW,323,8.0,9.0,84,0.00,,---,0.00,VWS V14.01,2014-01-31 02:17:00,
2014-01-30 19:18:00,31.0,26.7,29.55,NW,319,10.0,11.0,84,0.00,,---,0.00,VWS V14.01,2014-01-31 02:18:00,
2014-01-30 19:19:00,31.0,26.7,29.55,NW,321,10.0,11.0,84,0.00,,---,0.00,VWS V14.01,2014-01-31 02:19:00,
2014-01-30 19:20:00,31.0,26.7,29.56,NW,323,5.0,11.0,84,0.00,,---,0.00,VWS V14.01,2014-01-31 02:20:00,
2014-01-30 19:21:00,30.9,26.6,29.56,NW,322,7.0,9.0,84,0.00,,---,0.00,VWS V14.01,2014-01-31 02:21:00,
2014-01-30 19:22:00,30.9,26.6,29.56,NW,317,8.0,11.0,84,0.00,,---,0.00,VWS V14.01,2014-01-31 02:22:00,
2014-01-30 19:23:00,30.9,26.6,29.56,NW,319,5.0,11.0,84,0.00,,---,0.00,VWS V14.01,2014-01-31 02:23:00,
2014-01-30 19:24:00,30.9,26.6,29.56,NW,319,0.0,11.0,84,0.00,,---,0.00,VWS V14.01,2014-01-31 02:24:00,
2014-01-30 19:25:00,30.9,26.6,29.55,NW,320,1.0,11.0,84,0.00,,---,0.00,VWS V14.01,2014-01-31 02:25:00,
2014-01-30 19:26:00,30.9,26.6,29.55,NW,323,8.0,11.0,84,0.00,,---,0.00,VWS V14.01,2014-01-31 02:26:00,
2014-01-30 19:27:00,30.9,26.6,29.55,NW,323,1.0,11.0,84,0.00,,---,0.00,VWS V14.01,2014-01-31 02:27:00,
2014-01-30 19:28:00,30.9,26.6,29.55,NW,325,0.0,11.0,84,0.00,,---,0.00,VWS V14.01,2014-01-31 02:28:00,
2014-01-30 19:29:00,30.9,26.6,29.55,NW,325,0.0,11.0,84,0.00,,---,0.00,VWS V14.01,2014-01-31 02:29:00,
2014-01-30 19:30:00,30.9,26.6,29.55,NW,325,2.0,11.0,84,0.00,,---,0.00,VWS V14.01,2014-01-31 02:30:00,
2014-01-30 19:31:00,30.9,26.6,29.55,NW,325,0.0,1.0,84,0.00,,---,0.00,VWS V14.01,2014-01-31 02:31:00,
2014-01-30 19:32:00,30.9,26.6,29.55,NW,325,0.0,2.0,84,0.00,,---,0.00,VWS V14.01,2014-01-31 02:32:00,
2014-01-30 19:33:00,30.9,26.6,29.56,NW,325,5.0,6.0,84,0.00,,---,0.00,VWS V14.01,2014-01-31 02:33:00,
2014-01-30 19:34:00,30.9,26.6,29.56,NW,325,2.0,6.0,84,0.00,,---,0.00,VWS V14.01,2014-01-31 02:34:00,
2014-01-30 19:35:00,30.9,26.6,29.55,NW,325,0.0,6.0,84,0.00,,---,0.00,VWS V14.01,2014-01-31 02:35:00,
2014-01-30 19:36:00,31.0,26.7,29.55,NW,325,0.0,0.0,84,0.00,,---,0.00,VWS V14.01,2014-01-31 02:36:00,
2014-01-30 19:37:00,31.0,26.7,29.55,NW,325,0.0,0.0,84,0.00,,---,0.00,VWS V14.01,2014-01-31 02:37:00,
2014-01-30 19:38:00,30.9,26.6,29.55,NW,325,0.0,4.0,84,0.00,,---,0.00,VWS V14.01,2014-01-31 02:38:00,
2014-01-30 19:39:00,30.9,26.6,29.56,NW,325,2.0,5.0,84,0.00,,---,0.00,VWS V14.01,2014-01-31 02:39:00,
2014-01-30 19:40:00,30.9,26.6,29.56,NW,325,0.0,5.0,84,0.00,,---,0.00,VWS V14.01,2014-01-31 02:40:00,
2014-01-30 19:41:00,30.9,26.6,29.56,NW,325,1.0,1.0,84,0.00,,---,0.00,VWS V14.01,2014-01-31 02:41:00,
2014-01-30 19:42:00,30.9,26.6,29.56,NW,325,2.0,4.0,84,0.00,,---,0.00,VWS V14.01,2014-01-31 02:42:00,
2014-01-30 19:43:00,30.8,26.5,29.56,NW,325,0.0,4.0,84,0.00,,---,0.00,VWS V14.01,2014-01-31 02:43:00,
2014-01-30 19:44:00,30.8,26.5,29.55,NW,325,0.0,4.0,84,0.00,,---,0.00,VWS V14.01,2014-01-31 02:44:00,
2014-01-30 19:45:00,30.8,26.5,29.55,NW,325,0.0,4.0,84,0.00,,---,0.00,VWS V14.01,2014-01-31 02:45:00,
2014-01-30 19:46:00,30.8,26.5,29.55,NW,325,2.0,2.0,84,0.00,,---,0.00,VWS V14.01,2014-01-31 02:46:00,
2014-01-30 19:47:00,30.8,26.5,29.55,NW,325,2.0,5.0,84,0.00,,---,0.00,VWS V14.01,2014-01-31 02:47:00,
2014-01-30 19:48:00,30.7,26.5,29.55,NW,325,1.0,5.0,84,0.00,,---,0.00,VWS V14.01,2014-01-31 02:48:00,
2014-01-30 19:49:00,30.7,26.5,29.54,NW,325,0.0,5.0,84,0.00,,---,0.00,VWS V14.01,2014-01-31 02:49:00,
2014-01-30 19:50:00,30.7,26.5,29.55,NW,325,0.0,5.0,84,0.00,,---,0.00,VWS V14.01,2014-01-31 02:50:00,
2014-01-30 19:51:00,30.7,26.5,29.54,NW,325,0.0,2.0,84,0.00,,---,0.00,VWS V14.01,2014-01-31 02:51:00,
2014-01-30 19:52:00,30.7,26.5,29.53,NW,325,0.0,2.0,84,0.00,,---,0.00,VWS V14.01,2014-01-31 02:52:00,
2014-01-30 19:53:00,30.7,26.5,29.53,NW,325,0.0,2.0,84,0.00,,---,0.00,VWS V14.01,2014-01-31 02:53:00,
2014-01-30 19:54:00,30.7,26.5,29.53,North,355,0.0,4.0,84,0.00,,---,0.00,VWS V14.01,2014-01-31 02:54:00,
2014-01-30 19:55:00,30.7,26.5,29.54,NNW,346,2.0,4.0,84,0.00,,---,0.00,VWS V14.01,2014-01-31 02:55:00,
2014-01-30 19:56:00,30.7,26.5,29.54,NNW,343,2.0,4.0,84,0.00,,---,0.00,VWS V14.01,2014-01-31 02:56:00,
2014-01-30 19:57:00,30.7,26.5,29.54,NNW,344,0.0,4.0,84,0.00,,---,0.00,VWS V14.01,2014-01-31 02:57:00,
2014-01-30 19:58:00,30.7,26.5,29.53,NNW,348,0.0,4.0,84,0.00,,---,0.00,VWS V14.01,2014-01-31 02:58:00,
2014-01-30 19:59:00,30.6,26.4,29.53,NNW,348,0.0,4.0,84,0.00,,---,0.00,VWS V14.01,2014-01-31 02:59:00,
2014-01-30 20:00:00,30.6,26.4,29.53,NNW,334,5.0,5.0,84,0.00,,---,0.00,VWS V14.01,2014-01-31 03:00:00,
2014-01-30 20:01:00,30.6,26.4,29.52,NW,325,4.0,7.0,84,0.00,,---,0.00,VWS V14.01,2014-01-31 03:01:00,
2014-01-30 20:02:00,30.6,26.4,29.52,NNW,327,1.0,8.0,84,0.00,,---,0.00,VWS V14.01,2014-01-31 03:02:00,
2014-01-30 20:03:00,30.6,26.4,29.52,NNW,327,4.0,8.0,84,0.00,,---,0.00,VWS V14.01,2014-01-31 03:03:00,
2014-01-30 20:04:00,30.6,26.4,29.52,NNW,327,4.0,8.0,84,0.00,,---,0.00,VWS V14.01,2014-01-31 03:04:00,
2014-01-30 20:05:00,30.6,26.4,29.52,NNW,327,0.0,8.0,84,0.00,,---,0.00,VWS V14.01,2014-01-31 03:05:00,
2014-01-30 20:06:00,30.6,26.4,29.53,NW,326,0.0,0.0,84,0.00,,---,0.00,VWS V14.01,2014-01-31 03:06:00,
2014-01-30 20:07:00,30.6,26.4,29.53,NW,326,0.0,0.0,84,0.00,,---,0.00,VWS V14.01,2014-01-31 03:07:00,
2014-01-30 20:08:00,30.5,26.2,29.53,NNW,327,0.0,0.0,84,0.00,,---,0.00,VWS V14.01,2014-01-31 03:08:00,
2014-01-30 20:09:00,30.6,26.4,29.52,NW,326,0.0,1.0,84,0.00,,---,0.00,VWS V14.01,2014-01-31 03:09:00,
2014-01-30 20:10:00,30.5,26.2,29.52,NW,326,0.0,1.0,84,0.00,,---,0.00,VWS V14.01,2014-01-31 03:10:00,
2014-01-30 20:11:00,30.5,26.2,29.52,NNW,347,1.0,5.0,84,0.00,,---,0.00,VWS V14.01,2014-01-31 03:11:00,
2014-01-30 20:12:00,30.5,26.2,29.51,NNW,347,0.0,5.0,84,0.00,,---,0.00,VWS V14.01,2014-01-31 03:12:00,
2014-01-30 20:13:00,30.5,26.2,29.51,NNW,346,0.0,5.0,84,0.00,,---,0.00,VWS V14.01,2014-01-31 03:13:00,
2014-01-30 20:14:00,30.5,26.2,29.51,North,360,0.0,5.0,84,0.00,,---,0.00,VWS V14.01,2014-01-31 03:14:00,
2014-01-30 20:15:00,30.5,26.2,29.51,North,360,0.0,5.0,84,0.00,,---,0.00,VWS V14.01,2014-01-31 03:15:00,
2014-01-30 20:16:00,30.5,26.2,29.51,North,360,0.0,0.0,84,0.00,,---,0.00,VWS V14.01,2014-01-31 03:16:00,
2014-01-30 20:17:00,30.5,26.2,29.52,North,360,2.0,2.0,84,0.00,,---,0.00,VWS V14.01,2014-01-31 03:17:00,
2014-01-30 20:18:00,30.5,26.2,29.52,North,360,2.0,3.0,84,0.00,,---,0.00,VWS V14.01,2014-01-31 03:18:00,
2014-01-30 20:19:00,30.5,26.2,29.52,North,360,0.0,3.0,84,0.00,,---,0.00,VWS V14.01,2014-01-31 03:19:00,
2014-01-30 20:20:00,30.5,26.2,29.52,North,360,0.0,3.0,84,0.00,,---,0.00,VWS V14.01,2014-01-31 03:20:00,
2014-01-30 20:21:00,30.4,26.1,29.52,North,360,0.0,4.0,84,0.00,,---,0.00,VWS V14.01,2014-01-31 03:21:00,
2014-01-30 20:22:00,30.4,26.1,29.54,North,360,0.0,4.0,84,0.00,,---,0.00,VWS V14.01,2014-01-31 03:22:00,
2014-01-30 20:23:00,30.4,26.1,29.54,North,360,2.0,4.0,84,0.00,,---,0.00,VWS V14.01,2014-01-31 03:23:00,
2014-01-30 20:24:00,30.4,26.1,29.54,North,360,0.0,4.0,84,0.00,,---,0.00,VWS V14.01,2014-01-31 03:24:00,